GFSNE_prec_pwat_000.txt.gz
Precipitable_Water
0.49 0.50 0.49 0.50 0.48 0.48 0.50 0.47 0.42 0.36 0.38 0.44 0.44 0.50 0.47 0.47 0.47 0.45 0.47 0.48 0.48 0.43 0.46 0.47 0.46 0.48 0.45 0.46 0.46 0.48 0.49 0.48 0.51 0.57 0.65 0.77 0.83 0.93
0.44 0.42 0.40 0.40 0.41 0.42 0.41 0.41 0.40 0.36 0.32 0.35 0.34 0.36 0.38 0.38 0.41 0.40 0.40 0.41 0.41 0.39 0.36 0.39 0.42 0.44 0.44 0.43 0.42 0.42 0.45 0.47 0.42 0.43 0.50 0.59 0.76 0.82
0.39 0.37 0.35 0.35 0.34 0.33 0.32 0.32 0.31 0.31 0.27 0.28 0.31 0.32 0.32 0.33 0.35 0.37 0.37 0.37 0.39 0.40 0.37 0.32 0.33 0.35 0.39 0.40 0.42 0.42 0.43 0.47 0.45 0.41 0.41 0.45 0.54 0.74
0.34 0.34 0.32 0.29 0.27 0.27 0.28 0.28 0.29 0.30 0.28 0.25 0.28 0.28 0.29 0.30 0.32 0.33 0.33 0.33 0.33 0.34 0.35 0.35 0.33 0.31 0.32 0.34 0.37 0.41 0.44 0.44 0.48 0.46 0.42 0.42 0.43 0.51
0.34 0.31 0.28 0.27 0.26 0.27 0.27 0.27 0.27 0.26 0.26 0.25 0.24 0.26 0.26 0.27 0.26 0.28 0.29 0.30 0.31 0.30 0.31 0.34 0.33 0.30 0.29 0.29 0.31 0.33 0.38 0.43 0.45 0.47 0.47 0.42 0.42 0.44
0.29 0.28 0.27 0.26 0.25 0.25 0.24 0.24 0.23 0.22 0.21 0.20 0.20 0.20 0.22 0.24 0.24 0.24 0.24 0.27 0.27 0.29 0.29 0.28 0.29 0.31 0.32 0.30 0.27 0.28 0.31 0.33 0.40 0.45 0.45 0.46 0.43 0.42
0.27 0.27 0.26 0.26 0.25 0.24 0.22 0.20 0.20 0.19 0.20 0.21 0.21 0.21 0.21 0.22 0.23 0.24 0.24 0.26 0.27 0.29 0.29 0.29 0.29 0.29 0.28 0.26 0.24 0.26 0.25 0.28 0.33 0.40 0.44 0.46 0.45 0.44
0.23 0.24 0.24 0.24 0.23 0.22 0.22 0.22 0.22 0.20 0.20 0.20 0.21 0.20 0.21 0.23 0.26 0.25 0.25 0.24 0.22 0.29 0.28 0.27 0.30 0.29 0.30 0.30 0.30 0.31 0.30 0.27 0.29 0.32 0.38 0.43 0.44 0.44
0.22 0.23 0.22 0.21 0.21 0.21 0.22 0.23 0.23 0.24 0.24 0.24 0.22 0.24 0.25 0.28 0.29 0.28 0.27 0.26 0.25 0.27 0.29 0.27 0.32 0.31 0.34 0.33 0.31 0.30 0.29 0.28 0.28 0.30 0.34 0.37 0.42 0.43
0.23 0.22 0.21 0.21 0.22 0.23 0.23 0.23 0.24 0.25 0.27 0.29 0.28 0.28 0.29 0.30 0.30 0.30 0.29 0.30 0.31 0.30 0.31 0.25 0.30 0.29 0.32 0.34 0.32 0.33 0.32 0.30 0.31 0.32 0.33 0.36 0.40 0.44
0.22 0.22 0.22 0.22 0.24 0.25 0.24 0.24 0.25 0.26 0.30 0.32 0.31 0.31 0.32 0.33 0.33 0.32 0.30 0.28 0.26 0.27 0.31 0.28 0.29 0.29 0.29 0.30 0.33 0.33 0.35 0.31 0.29 0.30 0.31 0.35 0.39 0.43
0.22 0.22 0.24 0.24 0.24 0.26 0.26 0.26 0.24 0.26 0.29 0.31 0.31 0.35 0.35 0.33 0.33 0.33 0.32 0.28 0.28 0.27 0.31 0.28 0.28 0.29 0.26 0.30 0.30 0.32 0.32 0.30 0.26 0.26 0.29 0.32 0.38 0.39
0.21 0.22 0.24 0.27 0.27 0.27 0.27 0.27 0.27 0.30 0.28 0.28 0.29 0.30 0.31 0.33 0.35 0.36 0.35 0.33 0.30 0.28 0.32 0.30 0.31 0.29 0.29 0.28 0.33 0.34 0.34 0.34 0.33 0.31 0.28 0.31 0.36 0.37
0.22 0.24 0.27 0.27 0.27 0.27 0.27 0.29 0.28 0.28 0.28 0.28 0.28 0.28 0.29 0.30 0.32 0.34 0.35 0.35 0.36 0.33 0.34 0.34 0.31 0.29 0.29 0.29 0.28 0.31 0.35 0.36 0.35 0.33 0.33 0.34 0.35 0.39
0.26 0.27 0.27 0.27 0.27 0.28 0.29 0.28 0.28 0.29 0.28 0.27 0.27 0.29 0.31 0.33 0.35 0.36 0.36 0.36 0.35 0.36 0.37 0.36 0.34 0.31 0.30 0.30 0.30 0.32 0.32 0.35 0.37 0.35 0.37 0.36 0.36 0.39
0.27 0.28 0.27 0.27 0.28 0.29 0.28 0.28 0.28 0.28 0.27 0.27 0.27 0.30 0.32 0.33 0.33 0.35 0.33 0.34 0.32 0.32 0.36 0.36 0.35 0.34 0.30 0.32 0.32 0.31 0.33 0.31 0.36 0.36 0.37 0.39 0.40 0.42
0.26 0.26 0.25 0.25 0.26 0.26 0.25 0.26 0.26 0.26 0.26 0.27 0.27 0.28 0.29 0.30 0.31 0.32 0.32 0.31 0.29 0.30 0.31 0.34 0.36 0.36 0.35 0.33 0.31 0.34 0.33 0.33 0.35 0.37 0.35 0.33 0.36 0.38
0.25 0.23 0.23 0.24 0.25 0.25 0.25 0.24 0.25 0.24 0.25 0.26 0.27 0.28 0.27 0.28 0.28 0.29 0.29 0.28 0.27 0.28 0.29 0.32 0.33 0.31 0.32 0.33 0.35 0.30 0.31 0.33 0.36 0.38 0.36 0.32 0.31 0.36
0.23 0.23 0.23 0.24 0.24 0.25 0.25 0.25 0.24 0.25 0.26 0.26 0.26 0.26 0.27 0.27 0.28 0.27 0.28 0.28 0.27 0.27 0.28 0.30 0.30 0.29 0.26 0.24 0.33 0.36 0.32 0.33 0.35 0.35 0.37 0.34 0.32 0.33
0.23 0.23 0.23 0.24 0.22 0.22 0.24 0.24 0.25 0.26 0.25 0.25 0.25 0.26 0.26 0.26 0.25 0.26 0.27 0.27 0.28 0.29 0.29 0.30 0.29 0.30 0.28 0.27 0.29 0.31 0.34 0.32 0.33 0.32 0.33 0.36 0.37 0.37
0.23 0.23 0.22 0.19 0.17 0.17 0.18 0.20 0.23 0.24 0.25 0.25 0.25 0.25 0.26 0.26 0.25 0.25 0.26 0.26 0.27 0.27 0.26 0.26 0.29 0.32 0.33 0.33 0.28 0.28 0.31 0.34 0.34 0.33 0.33 0.31 0.30 0.31
0.21 0.20 0.19 0.18 0.17 0.16 0.16 0.15 0.15 0.17 0.19 0.22 0.24 0.25 0.25 0.26 0.25 0.25 0.24 0.24 0.24 0.25 0.25 0.26 0.28 0.29 0.28 0.27 0.26 0.26 0.27 0.30 0.33 0.33 0.34 0.33 0.30 0.28
0.18 0.17 0.17 0.17 0.17 0.17 0.16 0.16 0.16 0.16 0.16 0.17 0.19 0.23 0.24 0.24 0.25 0.25 0.25 0.25 0.24 0.24 0.24 0.24 0.25 0.25 0.25 0.25 0.25 0.25 0.25 0.26 0.28 0.28 0.30 0.32 0.33 0.34

GFSNE_prec_pwat_003.txt.gz
Precipitable_Water
0.49 0.49 0.47 0.47 0.48 0.47 0.46 0.46 0.42 0.36 0.38 0.45 0.49 0.58 0.60 0.59 0.53 0.51 0.51 0.54 0.50 0.47 0.46 0.49 0.49 0.48 0.45 0.45 0.45 0.46 0.48 0.49 0.51 0.55 0.61 0.65 0.71 0.81
0.47 0.44 0.42 0.41 0.40 0.41 0.43 0.45 0.45 0.40 0.34 0.40 0.38 0.43 0.44 0.44 0.46 0.48 0.50 0.49 0.51 0.48 0.46 0.45 0.44 0.45 0.45 0.44 0.43 0.42 0.42 0.42 0.45 0.45 0.46 0.48 0.53 0.60
0.44 0.42 0.40 0.40 0.37 0.34 0.34 0.33 0.33 0.34 0.30 0.31 0.34 0.35 0.36 0.37 0.39 0.42 0.43 0.44 0.44 0.43 0.41 0.39 0.36 0.36 0.38 0.39 0.40 0.39 0.40 0.41 0.42 0.44 0.42 0.42 0.43 0.46
0.39 0.39 0.38 0.38 0.36 0.34 0.32 0.30 0.29 0.29 0.28 0.26 0.30 0.32 0.34 0.36 0.36 0.37 0.38 0.40 0.40 0.39 0.40 0.39 0.39 0.35 0.31 0.33 0.35 0.36 0.37 0.38 0.40 0.42 0.45 0.44 0.44 0.43
0.34 0.34 0.33 0.32 0.31 0.30 0.31 0.30 0.30 0.30 0.29 0.28 0.27 0.29 0.30 0.31 0.31 0.33 0.34 0.35 0.36 0.37 0.38 0.38 0.38 0.39 0.35 0.31 0.30 0.32 0.33 0.35 0.37 0.40 0.41 0.45 0.47 0.46
0.27 0.28 0.28 0.28 0.28 0.28 0.28 0.28 0.28 0.27 0.26 0.25 0.24 0.24 0.24 0.25 0.26 0.26 0.26 0.29 0.29 0.31 0.32 0.31 0.32 0.34 0.34 0.33 0.29 0.27 0.27 0.28 0.31 0.35 0.38 0.41 0.44 0.47
0.22 0.23 0.25 0.27 0.27 0.26 0.25 0.24 0.24 0.23 0.23 0.22 0.22 0.22 0.23 0.24 0.24 0.27 0.26 0.28 0.29 0.31 0.31 0.31 0.32 0.33 0.32 0.30 0.29 0.28 0.26 0.25 0.24 0.28 0.31 0.36 0.41 0.45
0.20 0.22 0.23 0.24 0.26 0.26 0.26 0.25 0.23 0.20 0.20 0.21 0.20 0.21 0.22 0.24 0.25 0.25 0.26 0.25 0.23 0.30 0.28 0.28 0.33 0.32 0.33 0.36 0.38 0.35 0.31 0.29 0.26 0.22 0.24 0.30 0.34 0.39
0.21 0.22 0.23 0.23 0.23 0.23 0.23 0.24 0.25 0.25 0.24 0.22 0.19 0.19 0.20 0.22 0.25 0.25 0.26 0.27 0.26 0.29 0.29 0.26 0.32 0.33 0.34 0.34 0.35 0.37 0.36 0.36 0.33 0.31 0.29 0.28 0.29 0.33
0.23 0.23 0.23 0.23 0.23 0.24 0.24 0.24 0.23 0.23 0.24 0.25 0.25 0.24 0.25 0.27 0.28 0.28 0.29 0.29 0.30 0.32 0.33 0.26 0.31 0.30 0.33 0.35 0.35 0.33 0.35 0.35 0.34 0.32 0.31 0.30 0.29 0.30
0.22 0.23 0.24 0.23 0.21 0.22 0.22 0.21 0.22 0.23 0.26 0.28 0.28 0.28 0.29 0.30 0.31 0.32 0.29 0.29 0.26 0.27 0.30 0.28 0.29 0.29 0.32 0.30 0.33 0.32 0.31 0.33 0.34 0.35 0.33 0.31 0.29 0.29
0.23 0.23 0.23 0.24 0.25 0.24 0.24 0.23 0.22 0.24 0.26 0.28 0.30 0.33 0.36 0.35 0.34 0.32 0.30 0.27 0.27 0.26 0.30 0.29 0.29 0.28 0.26 0.32 0.32 0.33 0.34 0.33 0.31 0.32 0.33 0.32 0.31 0.30
0.23 0.23 0.25 0.26 0.26 0.26 0.26 0.24 0.24 0.28 0.27 0.27 0.28 0.29 0.29 0.30 0.31 0.35 0.34 0.32 0.28 0.28 0.33 0.32 0.33 0.30 0.29 0.27 0.30 0.34 0.38 0.37 0.37 0.37 0.34 0.30 0.30 0.31
0.23 0.25 0.27 0.25 0.25 0.25 0.26 0.27 0.28 0.27 0.28 0.28 0.28 0.28 0.29 0.29 0.31 0.32 0.34 0.37 0.37 0.35 0.35 0.35 0.31 0.30 0.28 0.29 0.28 0.32 0.35 0.36 0.37 0.37 0.35 0.37 0.35 0.29
0.26 0.26 0.27 0.26 0.26 0.27 0.28 0.27 0.28 0.28 0.28 0.26 0.26 0.28 0.30 0.33 0.34 0.35 0.36 0.38 0.37 0.37 0.36 0.36 0.34 0.33 0.34 0.29 0.28 0.29 0.33 0.36 0.40 0.37 0.36 0.34 0.34 0.34
0.26 0.26 0.27 0.26 0.27 0.28 0.28 0.29 0.29 0.28 0.26 0.26 0.27 0.29 0.31 0.32 0.32 0.34 0.33 0.33 0.32 0.32 0.36 0.36 0.35 0.34 0.31 0.31 0.30 0.29 0.32 0.31 0.40 0.38 0.36 0.36 0.40 0.42
0.25 0.26 0.25 0.24 0.25 0.26 0.26 0.26 0.27 0.26 0.26 0.26 0.27 0.27 0.29 0.30 0.30 0.33 0.30 0.30 0.28 0.28 0.31 0.34 0.36 0.35 0.34 0.32 0.29 0.30 0.31 0.33 0.37 0.36 0.37 0.34 0.35 0.37
0.25 0.23 0.23 0.23 0.24 0.25 0.25 0.25 0.25 0.25 0.25 0.26 0.26 0.27 0.27 0.28 0.28 0.31 0.30 0.28 0.27 0.28 0.29 0.30 0.33 0.31 0.31 0.32 0.34 0.30 0.31 0.31 0.33 0.36 0.38 0.33 0.32 0.37
0.23 0.23 0.23 0.23 0.23 0.24 0.25 0.25 0.24 0.25 0.26 0.26 0.26 0.26 0.27 0.27 0.27 0.27 0.28 0.29 0.28 0.28 0.29 0.31 0.31 0.29 0.26 0.24 0.31 0.36 0.31 0.32 0.33 0.33 0.35 0.36 0.34 0.34
0.23 0.23 0.22 0.19 0.18 0.19 0.21 0.23 0.25 0.25 0.26 0.26 0.25 0.26 0.26 0.26 0.26 0.25 0.26 0.26 0.26 0.28 0.29 0.31 0.30 0.30 0.28 0.27 0.28 0.31 0.36 0.33 0.32 0.32 0.33 0.37 0.38 0.38
0.22 0.22 0.20 0.18 0.17 0.17 0.17 0.18 0.20 0.21 0.24 0.25 0.25 0.25 0.26 0.26 0.25 0.25 0.25 0.26 0.26 0.26 0.25 0.26 0.28 0.31 0.32 0.33 0.28 0.28 0.31 0.33 0.33 0.32 0.33 0.32 0.31 0.31
0.20 0.20 0.19 0.18 0.18 0.18 0.18 0.18 0.18 0.18 0.18 0.21 0.24 0.25 0.26 0.26 0.26 0.25 0.25 0.24 0.24 0.25 0.25 0.26 0.28 0.28 0.28 0.26 0.26 0.26 0.27 0.30 0.31 0.32 0.33 0.32 0.29 0.26
0.18 0.18 0.19 0.19 0.18 0.17 0.16 0.16 0.17 0.17 0.17 0.17 0.18 0.21 0.24 0.24 0.25 0.25 0.25 0.26 0.25 0.24 0.25 0.24 0.26 0.26 0.24 0.24 0.24 0.25 0.24 0.25 0.27 0.28 0.28 0.30 0.32 0.32

GFSNE_prec_pwat_006.txt.gz
Precipitable_Water
0.47 0.47 0.46 0.46 0.44 0.44 0.43 0.42 0.39 0.30 0.31 0.37 0.43 0.51 0.54 0.65 0.67 0.69 0.63 0.60 0.55 0.53 0.50 0.48 0.51 0.50 0.48 0.48 0.50 0.52 0.54 0.56 0.56 0.56 0.59 0.65 0.67 0.71
0.47 0.47 0.48 0.47 0.47 0.45 0.44 0.42 0.40 0.35 0.28 0.37 0.38 0.39 0.45 0.49 0.59 0.60 0.59 0.56 0.53 0.53 0.50 0.49 0.48 0.47 0.48 0.47 0.46 0.47 0.47 0.47 0.48 0.49 0.48 0.47 0.51 0.55
0.40 0.42 0.43 0.45 0.44 0.44 0.43 0.40 0.36 0.34 0.29 0.30 0.33 0.36 0.36 0.39 0.43 0.46 0.50 0.49 0.49 0.48 0.45 0.43 0.42 0.43 0.44 0.45 0.44 0.43 0.43 0.43 0.43 0.44 0.48 0.46 0.44 0.45
0.37 0.36 0.35 0.35 0.35 0.35 0.36 0.35 0.34 0.34 0.31 0.27 0.29 0.29 0.30 0.34 0.36 0.38 0.40 0.44 0.45 0.46 0.45 0.44 0.42 0.40 0.40 0.39 0.37 0.39 0.40 0.40 0.41 0.41 0.44 0.46 0.47 0.44
0.24 0.23 0.24 0.27 0.27 0.27 0.26 0.28 0.30 0.32 0.32 0.30 0.29 0.30 0.29 0.29 0.30 0.33 0.35 0.37 0.39 0.40 0.41 0.40 0.40 0.40 0.40 0.38 0.36 0.34 0.36 0.37 0.38 0.39 0.40 0.41 0.42 0.44
0.20 0.18 0.20 0.23 0.26 0.28 0.29 0.28 0.27 0.27 0.28 0.26 0.25 0.25 0.25 0.26 0.26 0.24 0.24 0.28 0.30 0.33 0.34 0.35 0.37 0.37 0.37 0.37 0.34 0.33 0.31 0.31 0.34 0.36 0.36 0.37 0.38 0.41
0.22 0.21 0.21 0.22 0.23 0.25 0.25 0.27 0.26 0.22 0.21 0.21 0.21 0.22 0.22 0.23 0.24 0.30 0.31 0.32 0.32 0.34 0.34 0.32 0.34 0.37 0.39 0.38 0.36 0.35 0.32 0.30 0.28 0.28 0.31 0.33 0.35 0.37
0.22 0.22 0.22 0.22 0.23 0.26 0.27 0.26 0.25 0.21 0.19 0.19 0.19 0.19 0.20 0.23 0.25 0.27 0.28 0.27 0.25 0.33 0.30 0.29 0.33 0.31 0.33 0.37 0.40 0.42 0.40 0.36 0.35 0.34 0.29 0.28 0.29 0.30
0.21 0.22 0.22 0.24 0.26 0.27 0.28 0.28 0.27 0.28 0.27 0.25 0.22 0.21 0.20 0.20 0.22 0.22 0.24 0.25 0.26 0.30 0.29 0.25 0.30 0.29 0.33 0.35 0.39 0.39 0.37 0.38 0.37 0.35 0.34 0.33 0.31 0.30
0.22 0.22 0.21 0.22 0.25 0.26 0.26 0.25 0.25 0.25 0.25 0.26 0.25 0.24 0.26 0.26 0.25 0.25 0.25 0.25 0.26 0.27 0.30 0.25 0.30 0.28 0.31 0.33 0.34 0.34 0.34 0.34 0.34 0.36 0.36 0.35 0.35 0.33
0.23 0.25 0.26 0.23 0.23 0.24 0.23 0.21 0.21 0.21 0.23 0.24 0.26 0.28 0.29 0.29 0.29 0.28 0.24 0.24 0.24 0.27 0.31 0.28 0.28 0.28 0.30 0.29 0.31 0.31 0.31 0.29 0.30 0.30 0.33 0.36 0.35 0.35
0.25 0.24 0.24 0.25 0.27 0.27 0.25 0.25 0.22 0.23 0.25 0.24 0.25 0.26 0.27 0.28 0.31 0.33 0.32 0.27 0.25 0.24 0.29 0.27 0.28 0.30 0.27 0.30 0.30 0.30 0.31 0.33 0.33 0.32 0.32 0.32 0.34 0.34
0.23 0.23 0.25 0.27 0.26 0.25 0.25 0.23 0.22 0.24 0.24 0.24 0.24 0.25 0.27 0.28 0.30 0.30 0.33 0.33 0.29 0.26 0.30 0.30 0.30 0.31 0.30 0.30 0.30 0.31 0.32 0.33 0.35 0.37 0.38 0.37 0.34 0.33
0.23 0.25 0.25 0.26 0.26 0.26 0.26 0.26 0.27 0.26 0.26 0.25 0.26 0.27 0.28 0.29 0.31 0.32 0.32 0.34 0.36 0.34 0.35 0.36 0.32 0.31 0.29 0.27 0.27 0.31 0.33 0.35 0.37 0.36 0.37 0.40 0.39 0.37
0.25 0.26 0.26 0.26 0.26 0.26 0.27 0.27 0.27 0.27 0.27 0.26 0.26 0.27 0.29 0.31 0.32 0.32 0.34 0.35 0.35 0.37 0.39 0.38 0.36 0.34 0.32 0.29 0.28 0.30 0.30 0.32 0.34 0.38 0.40 0.38 0.37 0.35
0.25 0.26 0.26 0.26 0.26 0.27 0.27 0.27 0.27 0.28 0.26 0.26 0.26 0.28 0.30 0.31 0.31 0.33 0.32 0.33 0.32 0.31 0.36 0.36 0.35 0.34 0.31 0.31 0.31 0.30 0.31 0.28 0.32 0.36 0.39 0.37 0.37 0.38
0.25 0.25 0.24 0.24 0.24 0.25 0.25 0.25 0.26 0.25 0.25 0.26 0.26 0.27 0.27 0.28 0.29 0.31 0.31 0.29 0.27 0.27 0.28 0.32 0.35 0.36 0.35 0.32 0.29 0.30 0.29 0.29 0.32 0.33 0.36 0.36 0.37 0.37
0.24 0.23 0.22 0.23 0.23 0.24 0.23 0.23 0.24 0.24 0.25 0.25 0.26 0.26 0.26 0.27 0.27 0.29 0.30 0.29 0.27 0.27 0.28 0.31 0.32 0.31 0.31 0.32 0.33 0.28 0.29 0.30 0.32 0.33 0.35 0.32 0.35 0.39
0.23 0.23 0.22 0.20 0.19 0.21 0.24 0.24 0.24 0.25 0.26 0.25 0.25 0.25 0.26 0.26 0.27 0.26 0.26 0.27 0.27 0.29 0.30 0.32 0.31 0.28 0.24 0.23 0.30 0.37 0.30 0.31 0.32 0.30 0.32 0.33 0.31 0.37
0.23 0.22 0.21 0.18 0.17 0.16 0.17 0.19 0.22 0.25 0.25 0.25 0.25 0.26 0.26 0.26 0.25 0.25 0.25 0.26 0.26 0.28 0.29 0.28 0.28 0.27 0.26 0.25 0.27 0.31 0.36 0.33 0.32 0.31 0.31 0.34 0.36 0.40
0.20 0.21 0.20 0.19 0.19 0.18 0.18 0.18 0.19 0.19 0.22 0.24 0.24 0.25 0.26 0.26 0.25 0.25 0.25 0.25 0.25 0.25 0.24 0.24 0.26 0.30 0.31 0.32 0.27 0.27 0.31 0.33 0.32 0.31 0.31 0.30 0.31 0.32
0.18 0.19 0.20 0.20 0.18 0.17 0.17 0.17 0.17 0.17 0.17 0.18 0.22 0.24 0.25 0.26 0.25 0.25 0.25 0.25 0.24 0.25 0.24 0.26 0.28 0.26 0.26 0.25 0.24 0.26 0.27 0.29 0.30 0.31 0.32 0.31 0.29 0.25
0.17 0.17 0.18 0.18 0.18 0.18 0.17 0.16 0.15 0.15 0.15 0.15 0.17 0.18 0.21 0.22 0.24 0.25 0.24 0.25 0.24 0.23 0.24 0.25 0.25 0.27 0.24 0.23 0.24 0.24 0.23 0.24 0.26 0.26 0.27 0.29 0.30 0.32

GFSNE_prec_pwat_009.txt.gz
Precipitable_Water
0.43 0.44 0.44 0.47 0.48 0.49 0.48 0.46 0.40 0.29 0.28 0.33 0.32 0.36 0.40 0.48 0.51 0.54 0.63 0.64 0.70 0.70 0.62 0.61 0.65 0.63 0.58 0.53 0.51 0.52 0.56 0.59 0.62 0.62 0.62 0.67 0.70 0.72
0.38 0.39 0.40 0.43 0.46 0.46 0.46 0.45 0.44 0.38 0.29 0.36 0.34 0.35 0.37 0.40 0.46 0.49 0.56 0.62 0.66 0.68 0.63 0.57 0.54 0.52 0.53 0.51 0.49 0.46 0.46 0.49 0.50 0.52 0.54 0.54 0.53 0.55
0.30 0.30 0.30 0.33 0.34 0.37 0.39 0.38 0.37 0.37 0.33 0.33 0.34 0.33 0.32 0.32 0.35 0.41 0.48 0.54 0.58 0.60 0.59 0.53 0.50 0.47 0.47 0.47 0.46 0.46 0.45 0.43 0.43 0.44 0.45 0.48 0.53 0.52
0.25 0.25 0.23 0.23 0.20 0.22 0.25 0.28 0.31 0.31 0.28 0.27 0.31 0.31 0.30 0.32 0.32 0.32 0.36 0.42 0.47 0.55 0.54 0.49 0.47 0.45 0.43 0.43 0.43 0.43 0.43 0.42 0.42 0.42 0.43 0.42 0.44 0.48
0.25 0.24 0.23 0.22 0.18 0.18 0.23 0.24 0.25 0.28 0.27 0.25 0.26 0.30 0.30 0.31 0.30 0.30 0.31 0.35 0.38 0.41 0.43 0.46 0.45 0.43 0.42 0.42 0.41 0.41 0.40 0.39 0.41 0.42 0.42 0.42 0.42 0.42
0.25 0.24 0.24 0.22 0.21 0.20 0.21 0.22 0.23 0.25 0.25 0.24 0.23 0.23 0.24 0.27 0.29 0.28 0.25 0.32 0.33 0.37 0.37 0.38 0.39 0.41 0.42 0.40 0.39 0.38 0.38 0.38 0.37 0.36 0.38 0.40 0.41 0.40
0.23 0.23 0.22 0.22 0.24 0.25 0.25 0.25 0.25 0.25 0.23 0.20 0.20 0.19 0.19 0.19 0.21 0.25 0.23 0.26 0.29 0.34 0.34 0.36 0.36 0.37 0.37 0.38 0.39 0.39 0.38 0.38 0.39 0.39 0.37 0.37 0.38 0.40
0.22 0.21 0.21 0.22 0.24 0.25 0.27 0.29 0.29 0.27 0.24 0.22 0.20 0.18 0.18 0.20 0.21 0.20 0.22 0.23 0.22 0.32 0.32 0.30 0.33 0.31 0.33 0.35 0.36 0.38 0.39 0.38 0.38 0.37 0.38 0.38 0.36 0.36
0.23 0.22 0.21 0.23 0.23 0.23 0.25 0.26 0.27 0.28 0.28 0.27 0.24 0.22 0.21 0.22 0.21 0.20 0.21 0.22 0.24 0.28 0.29 0.27 0.31 0.29 0.32 0.33 0.35 0.37 0.37 0.36 0.36 0.37 0.38 0.38 0.38 0.36
0.24 0.22 0.23 0.24 0.26 0.25 0.24 0.23 0.24 0.24 0.24 0.24 0.24 0.23 0.23 0.24 0.24 0.24 0.25 0.26 0.26 0.26 0.27 0.21 0.25 0.25 0.28 0.28 0.30 0.33 0.35 0.35 0.34 0.32 0.31 0.32 0.35 0.37
0.24 0.25 0.24 0.23 0.24 0.26 0.25 0.24 0.24 0.24 0.25 0.25 0.25 0.27 0.28 0.29 0.29 0.28 0.24 0.22 0.19 0.20 0.24 0.23 0.23 0.24 0.26 0.26 0.29 0.30 0.31 0.31 0.31 0.31 0.31 0.29 0.29 0.30
0.25 0.25 0.25 0.26 0.27 0.26 0.24 0.23 0.21 0.21 0.22 0.23 0.24 0.24 0.23 0.23 0.24 0.25 0.25 0.23 0.23 0.21 0.25 0.23 0.23 0.25 0.23 0.28 0.29 0.30 0.30 0.31 0.31 0.32 0.32 0.32 0.31 0.30
0.24 0.24 0.25 0.25 0.26 0.26 0.25 0.24 0.23 0.24 0.23 0.23 0.22 0.22 0.23 0.25 0.26 0.28 0.28 0.27 0.26 0.26 0.30 0.30 0.27 0.27 0.28 0.27 0.29 0.29 0.32 0.32 0.32 0.33 0.34 0.36 0.36 0.36
0.24 0.24 0.25 0.26 0.25 0.26 0.26 0.26 0.26 0.26 0.25 0.24 0.24 0.24 0.26 0.27 0.30 0.33 0.34 0.33 0.34 0.31 0.32 0.33 0.30 0.29 0.28 0.27 0.26 0.29 0.30 0.33 0.34 0.34 0.35 0.37 0.37 0.38
0.25 0.26 0.26 0.25 0.26 0.26 0.26 0.26 0.26 0.26 0.25 0.24 0.24 0.26 0.28 0.30 0.32 0.33 0.34 0.36 0.35 0.35 0.36 0.36 0.34 0.34 0.33 0.29 0.27 0.28 0.28 0.30 0.34 0.33 0.34 0.35 0.36 0.39
0.25 0.26 0.25 0.26 0.26 0.26 0.25 0.26 0.26 0.26 0.25 0.25 0.25 0.27 0.30 0.30 0.30 0.32 0.30 0.32 0.31 0.31 0.36 0.37 0.37 0.35 0.31 0.32 0.31 0.29 0.31 0.29 0.33 0.34 0.33 0.34 0.37 0.38
0.25 0.25 0.24 0.23 0.23 0.24 0.24 0.24 0.25 0.25 0.24 0.25 0.25 0.26 0.26 0.27 0.28 0.31 0.31 0.30 0.27 0.26 0.27 0.31 0.34 0.34 0.34 0.33 0.29 0.30 0.30 0.30 0.31 0.32 0.32 0.30 0.33 0.37
0.24 0.22 0.22 0.19 0.18 0.19 0.21 0.23 0.24 0.24 0.24 0.25 0.25 0.26 0.25 0.26 0.27 0.28 0.28 0.27 0.26 0.27 0.27 0.30 0.31 0.31 0.31 0.32 0.36 0.31 0.30 0.30 0.31 0.34 0.34 0.30 0.29 0.34
0.22 0.22 0.20 0.18 0.17 0.17 0.18 0.18 0.21 0.25 0.25 0.25 0.25 0.25 0.25 0.26 0.26 0.25 0.25 0.25 0.25 0.27 0.28 0.30 0.30 0.28 0.24 0.22 0.30 0.36 0.31 0.31 0.31 0.30 0.31 0.31 0.29 0.32
0.19 0.20 0.19 0.18 0.18 0.18 0.18 0.18 0.18 0.19 0.23 0.24 0.24 0.24 0.25 0.25 0.24 0.24 0.24 0.24 0.25 0.26 0.26 0.26 0.26 0.26 0.24 0.24 0.25 0.29 0.34 0.31 0.31 0.30 0.30 0.32 0.34 0.36
0.16 0.17 0.20 0.20 0.18 0.17 0.17 0.17 0.18 0.17 0.18 0.21 0.23 0.24 0.24 0.25 0.24 0.25 0.24 0.24 0.24 0.24 0.23 0.24 0.27 0.29 0.30 0.30 0.25 0.26 0.29 0.32 0.31 0.29 0.29 0.28 0.28 0.30
0.16 0.15 0.17 0.19 0.18 0.18 0.17 0.16 0.15 0.13 0.14 0.16 0.18 0.21 0.23 0.24 0.24 0.24 0.24 0.24 0.23 0.23 0.23 0.25 0.27 0.27 0.25 0.23 0.22 0.24 0.25 0.27 0.29 0.29 0.29 0.28 0.26 0.24
0.17 0.16 0.16 0.17 0.17 0.17 0.18 0.16 0.14 0.12 0.11 0.12 0.14 0.16 0.17 0.18 0.21 0.22 0.22 0.22 0.22 0.21 0.22 0.24 0.25 0.26 0.25 0.24 0.24 0.24 0.23 0.23 0.24 0.24 0.26 0.28 0.28 0.29

GFSNE_prec_pwat_015.txt.gz
Precipitable_Water
0.27 0.28 0.27 0.25 0.24 0.24 0.23 0.26 0.27 0.22 0.22 0.28 0.32 0.36 0.37 0.39 0.36 0.35 0.39 0.43 0.41 0.40 0.45 0.49 0.53 0.65 0.66 0.67 0.71 0.75 0.77 0.75 0.73 0.70 0.74 0.70 0.69 0.71
0.25 0.24 0.23 0.22 0.23 0.24 0.23 0.22 0.21 0.20 0.18 0.26 0.27 0.33 0.34 0.34 0.37 0.36 0.34 0.34 0.40 0.37 0.39 0.49 0.52 0.55 0.61 0.62 0.59 0.61 0.65 0.67 0.71 0.72 0.73 0.71 0.66 0.60
0.23 0.24 0.24 0.24 0.23 0.23 0.22 0.21 0.20 0.20 0.17 0.18 0.21 0.27 0.30 0.28 0.31 0.33 0.34 0.33 0.35 0.39 0.35 0.44 0.52 0.52 0.57 0.62 0.63 0.65 0.62 0.57 0.57 0.57 0.55 0.55 0.57 0.58
0.24 0.25 0.24 0.24 0.22 0.21 0.19 0.17 0.17 0.19 0.19 0.17 0.19 0.20 0.22 0.25 0.28 0.29 0.30 0.31 0.32 0.34 0.37 0.40 0.50 0.52 0.56 0.57 0.61 0.62 0.65 0.56 0.54 0.53 0.52 0.49 0.46 0.47
0.26 0.25 0.22 0.20 0.18 0.19 0.20 0.20 0.21 0.22 0.23 0.22 0.19 0.21 0.23 0.24 0.22 0.24 0.25 0.26 0.27 0.30 0.34 0.39 0.47 0.52 0.53 0.53 0.57 0.58 0.58 0.61 0.54 0.51 0.53 0.52 0.49 0.46
0.24 0.22 0.21 0.21 0.21 0.21 0.20 0.20 0.23 0.24 0.25 0.24 0.24 0.23 0.24 0.25 0.23 0.19 0.18 0.20 0.21 0.24 0.31 0.35 0.44 0.47 0.50 0.53 0.53 0.56 0.52 0.53 0.53 0.54 0.51 0.49 0.49 0.48
0.23 0.22 0.23 0.23 0.24 0.23 0.22 0.23 0.24 0.23 0.23 0.24 0.23 0.24 0.24 0.23 0.21 0.21 0.18 0.18 0.18 0.19 0.24 0.32 0.37 0.42 0.45 0.48 0.50 0.53 0.53 0.51 0.52 0.50 0.48 0.48 0.47 0.45
0.21 0.22 0.23 0.23 0.23 0.24 0.26 0.26 0.26 0.24 0.23 0.23 0.22 0.22 0.24 0.24 0.24 0.22 0.20 0.17 0.14 0.20 0.23 0.26 0.32 0.34 0.39 0.41 0.46 0.48 0.50 0.51 0.49 0.48 0.47 0.45 0.44 0.44
0.20 0.21 0.22 0.24 0.25 0.26 0.26 0.26 0.27 0.27 0.27 0.25 0.22 0.23 0.23 0.25 0.26 0.23 0.20 0.18 0.17 0.19 0.22 0.21 0.26 0.27 0.35 0.37 0.39 0.42 0.45 0.45 0.46 0.45 0.44 0.43 0.42 0.40
0.20 0.22 0.24 0.25 0.26 0.26 0.26 0.25 0.24 0.25 0.25 0.25 0.26 0.26 0.24 0.25 0.25 0.24 0.22 0.21 0.21 0.21 0.24 0.19 0.23 0.21 0.26 0.32 0.35 0.37 0.42 0.43 0.42 0.41 0.38 0.36 0.35 0.34
0.22 0.24 0.25 0.25 0.26 0.27 0.25 0.24 0.24 0.23 0.25 0.25 0.25 0.26 0.29 0.29 0.29 0.26 0.22 0.20 0.17 0.18 0.23 0.22 0.21 0.21 0.21 0.22 0.27 0.31 0.33 0.36 0.36 0.35 0.34 0.33 0.33 0.31
0.22 0.24 0.25 0.26 0.27 0.27 0.25 0.24 0.22 0.22 0.23 0.24 0.24 0.24 0.24 0.24 0.25 0.25 0.22 0.18 0.18 0.16 0.21 0.21 0.20 0.22 0.19 0.22 0.21 0.23 0.27 0.29 0.30 0.29 0.29 0.28 0.27 0.28
0.22 0.23 0.25 0.27 0.27 0.27 0.26 0.25 0.24 0.25 0.24 0.24 0.24 0.24 0.24 0.23 0.22 0.22 0.22 0.20 0.17 0.16 0.21 0.22 0.20 0.22 0.22 0.21 0.24 0.26 0.26 0.26 0.26 0.27 0.28 0.29 0.29 0.29
0.21 0.24 0.26 0.26 0.26 0.26 0.26 0.26 0.25 0.25 0.24 0.23 0.22 0.22 0.23 0.24 0.26 0.27 0.28 0.28 0.28 0.26 0.28 0.27 0.22 0.21 0.20 0.20 0.21 0.25 0.26 0.28 0.27 0.26 0.28 0.30 0.31 0.32
0.21 0.24 0.25 0.23 0.21 0.19 0.23 0.25 0.25 0.24 0.23 0.21 0.21 0.22 0.24 0.27 0.28 0.29 0.30 0.31 0.32 0.33 0.33 0.32 0.29 0.28 0.26 0.24 0.23 0.25 0.25 0.27 0.28 0.27 0.28 0.31 0.30 0.31
0.18 0.22 0.23 0.19 0.19 0.19 0.19 0.23 0.24 0.24 0.23 0.23 0.23 0.25 0.27 0.27 0.27 0.29 0.28 0.30 0.29 0.30 0.35 0.36 0.34 0.32 0.28 0.28 0.28 0.26 0.29 0.27 0.30 0.30 0.30 0.31 0.32 0.33
0.14 0.18 0.19 0.17 0.17 0.18 0.18 0.18 0.21 0.23 0.22 0.23 0.23 0.24 0.25 0.26 0.27 0.29 0.30 0.30 0.28 0.27 0.28 0.32 0.34 0.34 0.33 0.31 0.27 0.28 0.29 0.30 0.32 0.32 0.31 0.30 0.31 0.31
0.13 0.13 0.16 0.18 0.17 0.17 0.16 0.16 0.16 0.20 0.22 0.23 0.23 0.23 0.23 0.24 0.25 0.26 0.27 0.26 0.25 0.25 0.26 0.28 0.29 0.29 0.29 0.30 0.33 0.27 0.28 0.29 0.31 0.32 0.32 0.29 0.27 0.30
0.12 0.12 0.13 0.15 0.16 0.18 0.17 0.16 0.15 0.14 0.20 0.22 0.22 0.22 0.23 0.23 0.23 0.24 0.24 0.25 0.24 0.25 0.26 0.27 0.27 0.27 0.23 0.21 0.28 0.33 0.28 0.29 0.30 0.30 0.30 0.30 0.29 0.31
0.15 0.13 0.12 0.13 0.14 0.16 0.17 0.16 0.13 0.12 0.14 0.19 0.22 0.22 0.22 0.22 0.22 0.22 0.22 0.22 0.22 0.23 0.24 0.25 0.25 0.26 0.23 0.22 0.23 0.28 0.32 0.29 0.28 0.28 0.29 0.31 0.33 0.34
0.15 0.15 0.14 0.13 0.13 0.14 0.16 0.16 0.15 0.13 0.12 0.14 0.17 0.21 0.22 0.22 0.22 0.22 0.22 0.22 0.22 0.21 0.21 0.22 0.25 0.29 0.28 0.28 0.24 0.24 0.28 0.31 0.29 0.27 0.27 0.26 0.25 0.27
0.15 0.15 0.16 0.15 0.14 0.13 0.13 0.15 0.15 0.14 0.13 0.12 0.13 0.14 0.16 0.20 0.22 0.22 0.22 0.21 0.21 0.21 0.21 0.24 0.26 0.27 0.25 0.23 0.21 0.22 0.24 0.26 0.28 0.28 0.28 0.26 0.23 0.21
0.16 0.15 0.15 0.15 0.14 0.14 0.15 0.15 0.15 0.15 0.15 0.14 0.14 0.14 0.13 0.12 0.14 0.15 0.17 0.18 0.19 0.19 0.21 0.22 0.24 0.25 0.24 0.24 0.23 0.23 0.24 0.23 0.24 0.23 0.24 0.27 0.27 0.27

GFSNE_prec_pwat_018.txt.gz
Precipitable_Water
0.27 0.26 0.25 0.25 0.25 0.25 0.24 0.24 0.22 0.16 0.14 0.16 0.18 0.23 0.26 0.29 0.34 0.37 0.37 0.34 0.36 0.40 0.38 0.35 0.38 0.44 0.51 0.56 0.59 0.65 0.73 0.75 0.79 0.80 0.84 0.80 0.77 0.70
0.27 0.23 0.23 0.24 0.25 0.25 0.25 0.24 0.23 0.21 0.16 0.18 0.18 0.21 0.24 0.25 0.27 0.32 0.32 0.36 0.35 0.37 0.39 0.36 0.34 0.40 0.46 0.52 0.56 0.57 0.67 0.80 0.82 0.83 0.82 0.76 0.71 0.66
0.24 0.23 0.22 0.24 0.23 0.23 0.23 0.21 0.19 0.18 0.16 0.16 0.19 0.20 0.20 0.20 0.23 0.26 0.29 0.30 0.33 0.35 0.40 0.38 0.35 0.35 0.43 0.51 0.56 0.56 0.58 0.65 0.74 0.81 0.81 0.76 0.74 0.67
0.23 0.24 0.23 0.24 0.22 0.20 0.19 0.19 0.20 0.21 0.19 0.18 0.20 0.20 0.21 0.22 0.27 0.25 0.24 0.28 0.29 0.30 0.33 0.36 0.36 0.35 0.39 0.49 0.53 0.55 0.53 0.51 0.56 0.61 0.70 0.76 0.78 0.73
0.25 0.24 0.22 0.22 0.20 0.20 0.21 0.21 0.22 0.21 0.22 0.23 0.21 0.24 0.24 0.25 0.23 0.26 0.24 0.22 0.24 0.25 0.26 0.32 0.36 0.37 0.36 0.45 0.53 0.54 0.55 0.52 0.51 0.51 0.54 0.57 0.59 0.61
0.24 0.23 0.22 0.21 0.20 0.22 0.23 0.23 0.23 0.23 0.24 0.23 0.22 0.25 0.26 0.26 0.27 0.24 0.23 0.23 0.20 0.21 0.21 0.26 0.33 0.39 0.38 0.44 0.52 0.53 0.55 0.53 0.54 0.49 0.49 0.50 0.51 0.52
0.23 0.21 0.21 0.21 0.24 0.25 0.24 0.24 0.25 0.24 0.24 0.23 0.22 0.23 0.23 0.23 0.24 0.27 0.25 0.23 0.22 0.20 0.17 0.19 0.27 0.35 0.38 0.45 0.50 0.52 0.53 0.54 0.53 0.51 0.49 0.48 0.48 0.50
0.18 0.18 0.18 0.21 0.23 0.26 0.26 0.26 0.27 0.25 0.23 0.22 0.21 0.20 0.20 0.22 0.26 0.25 0.25 0.23 0.19 0.23 0.20 0.17 0.23 0.28 0.34 0.41 0.47 0.50 0.52 0.52 0.53 0.53 0.50 0.47 0.47 0.49
0.17 0.17 0.18 0.23 0.25 0.25 0.26 0.27 0.26 0.26 0.26 0.25 0.22 0.22 0.22 0.23 0.24 0.24 0.25 0.24 0.22 0.22 0.21 0.16 0.20 0.22 0.31 0.36 0.41 0.44 0.48 0.51 0.51 0.52 0.51 0.49 0.48 0.48
0.18 0.19 0.20 0.24 0.25 0.26 0.27 0.26 0.25 0.25 0.26 0.25 0.24 0.24 0.24 0.27 0.26 0.25 0.24 0.24 0.25 0.24 0.24 0.16 0.20 0.18 0.25 0.30 0.38 0.40 0.45 0.46 0.48 0.49 0.48 0.48 0.46 0.46
0.19 0.20 0.22 0.24 0.26 0.27 0.26 0.25 0.24 0.24 0.26 0.26 0.26 0.26 0.25 0.26 0.28 0.27 0.22 0.21 0.19 0.20 0.23 0.20 0.20 0.19 0.22 0.23 0.27 0.35 0.38 0.44 0.45 0.45 0.45 0.43 0.41 0.40
0.19 0.19 0.22 0.25 0.26 0.27 0.26 0.24 0.22 0.23 0.23 0.24 0.25 0.25 0.26 0.25 0.24 0.25 0.23 0.21 0.21 0.19 0.22 0.21 0.20 0.20 0.18 0.22 0.22 0.24 0.28 0.34 0.37 0.40 0.41 0.40 0.40 0.37
0.17 0.17 0.22 0.25 0.24 0.24 0.22 0.23 0.24 0.25 0.24 0.24 0.24 0.24 0.25 0.26 0.25 0.24 0.22 0.21 0.19 0.19 0.21 0.21 0.20 0.20 0.20 0.21 0.24 0.26 0.22 0.24 0.27 0.30 0.32 0.32 0.34 0.33
0.15 0.17 0.22 0.23 0.20 0.20 0.20 0.22 0.25 0.25 0.24 0.22 0.22 0.21 0.22 0.23 0.26 0.27 0.27 0.26 0.26 0.24 0.25 0.25 0.21 0.21 0.21 0.20 0.20 0.25 0.27 0.28 0.28 0.26 0.27 0.29 0.31 0.32
0.15 0.16 0.19 0.19 0.19 0.19 0.21 0.21 0.22 0.24 0.23 0.22 0.21 0.22 0.24 0.25 0.27 0.27 0.29 0.30 0.30 0.30 0.31 0.31 0.28 0.26 0.24 0.22 0.22 0.25 0.26 0.27 0.30 0.28 0.28 0.29 0.30 0.31
0.15 0.14 0.15 0.18 0.18 0.18 0.19 0.19 0.18 0.23 0.22 0.22 0.22 0.24 0.26 0.26 0.26 0.28 0.27 0.28 0.27 0.28 0.33 0.34 0.33 0.31 0.27 0.27 0.26 0.25 0.28 0.26 0.30 0.30 0.29 0.29 0.32 0.32
0.14 0.13 0.12 0.13 0.15 0.17 0.17 0.17 0.17 0.17 0.22 0.22 0.22 0.23 0.24 0.25 0.26 0.28 0.28 0.28 0.26 0.27 0.28 0.32 0.35 0.35 0.33 0.31 0.27 0.28 0.28 0.28 0.31 0.31 0.30 0.28 0.30 0.31
0.13 0.12 0.12 0.11 0.12 0.15 0.16 0.15 0.13 0.14 0.18 0.22 0.22 0.22 0.22 0.23 0.24 0.26 0.27 0.26 0.26 0.26 0.27 0.29 0.30 0.29 0.29 0.31 0.33 0.28 0.29 0.29 0.30 0.31 0.30 0.28 0.27 0.31
0.14 0.12 0.12 0.12 0.12 0.12 0.15 0.16 0.14 0.12 0.15 0.18 0.22 0.22 0.22 0.22 0.22 0.22 0.23 0.23 0.23 0.24 0.25 0.27 0.27 0.26 0.23 0.21 0.28 0.32 0.27 0.28 0.28 0.28 0.30 0.28 0.27 0.30
0.14 0.14 0.13 0.12 0.13 0.12 0.13 0.14 0.15 0.14 0.13 0.15 0.17 0.21 0.21 0.21 0.21 0.21 0.21 0.21 0.21 0.22 0.22 0.25 0.25 0.25 0.24 0.23 0.24 0.28 0.33 0.29 0.28 0.27 0.28 0.30 0.32 0.33
0.14 0.14 0.14 0.14 0.13 0.13 0.13 0.13 0.13 0.14 0.14 0.14 0.14 0.14 0.17 0.20 0.21 0.21 0.21 0.20 0.20 0.20 0.20 0.21 0.25 0.28 0.28 0.28 0.24 0.24 0.28 0.31 0.30 0.27 0.27 0.26 0.25 0.27
0.16 0.15 0.15 0.14 0.13 0.12 0.13 0.14 0.14 0.14 0.14 0.15 0.15 0.15 0.13 0.13 0.15 0.19 0.20 0.19 0.19 0.19 0.19 0.22 0.26 0.27 0.26 0.23 0.21 0.22 0.24 0.27 0.29 0.29 0.28 0.26 0.24 0.21
0.17 0.17 0.16 0.15 0.14 0.13 0.13 0.12 0.12 0.13 0.13 0.14 0.16 0.17 0.16 0.12 0.12 0.13 0.13 0.15 0.16 0.18 0.20 0.22 0.24 0.25 0.25 0.24 0.23 0.23 0.24 0.24 0.24 0.24 0.25 0.28 0.27 0.27

GFSNE_prec_pwat_021.txt.gz
Precipitable_Water
0.30 0.29 0.27 0.25 0.25 0.25 0.25 0.25 0.22 0.17 0.16 0.18 0.17 0.21 0.22 0.23 0.24 0.25 0.27 0.32 0.35 0.36 0.37 0.38 0.38 0.34 0.34 0.40 0.46 0.48 0.56 0.67 0.69 0.71 0.73 0.79 0.86 0.81
0.30 0.28 0.24 0.25 0.25 0.26 0.26 0.26 0.24 0.20 0.15 0.17 0.17 0.19 0.20 0.21 0.24 0.24 0.24 0.26 0.28 0.32 0.35 0.40 0.39 0.36 0.33 0.34 0.42 0.48 0.50 0.59 0.70 0.72 0.72 0.74 0.87 0.88
0.31 0.28 0.24 0.25 0.24 0.25 0.25 0.22 0.20 0.19 0.17 0.17 0.20 0.21 0.21 0.22 0.23 0.25 0.23 0.25 0.27 0.29 0.33 0.35 0.37 0.37 0.35 0.34 0.38 0.47 0.50 0.52 0.58 0.73 0.72 0.77 0.85 0.88
0.30 0.26 0.24 0.24 0.23 0.23 0.22 0.20 0.21 0.22 0.21 0.18 0.20 0.21 0.24 0.25 0.25 0.26 0.25 0.29 0.27 0.27 0.26 0.29 0.32 0.37 0.37 0.35 0.36 0.43 0.52 0.54 0.52 0.62 0.76 0.75 0.81 0.79
0.29 0.24 0.23 0.23 0.21 0.20 0.20 0.21 0.23 0.24 0.24 0.22 0.21 0.24 0.24 0.24 0.27 0.28 0.27 0.27 0.29 0.26 0.23 0.23 0.27 0.33 0.38 0.37 0.36 0.40 0.50 0.53 0.50 0.49 0.72 0.75 0.78 0.78
0.24 0.23 0.22 0.20 0.18 0.19 0.21 0.23 0.24 0.25 0.24 0.24 0.22 0.22 0.23 0.25 0.26 0.25 0.25 0.27 0.26 0.26 0.23 0.22 0.22 0.29 0.36 0.38 0.36 0.41 0.46 0.53 0.48 0.45 0.51 0.68 0.75 0.75
0.20 0.18 0.18 0.18 0.19 0.21 0.23 0.24 0.24 0.24 0.23 0.23 0.21 0.20 0.20 0.21 0.21 0.23 0.24 0.27 0.29 0.27 0.24 0.23 0.23 0.26 0.33 0.36 0.39 0.41 0.46 0.53 0.50 0.47 0.42 0.48 0.51 0.53
0.16 0.17 0.17 0.18 0.20 0.23 0.25 0.26 0.26 0.25 0.24 0.22 0.21 0.21 0.22 0.22 0.23 0.22 0.25 0.24 0.22 0.28 0.25 0.23 0.24 0.23 0.27 0.31 0.36 0.40 0.45 0.52 0.53 0.51 0.50 0.45 0.45 0.47
0.17 0.17 0.17 0.19 0.21 0.24 0.25 0.26 0.28 0.27 0.26 0.25 0.22 0.21 0.20 0.21 0.23 0.23 0.23 0.24 0.23 0.28 0.25 0.22 0.25 0.22 0.24 0.28 0.31 0.36 0.46 0.51 0.53 0.51 0.52 0.50 0.49 0.48
0.18 0.18 0.18 0.19 0.21 0.24 0.26 0.26 0.26 0.25 0.26 0.26 0.25 0.24 0.24 0.25 0.24 0.25 0.25 0.24 0.25 0.26 0.27 0.21 0.23 0.22 0.24 0.24 0.29 0.36 0.45 0.49 0.52 0.52 0.52 0.51 0.49 0.47
0.18 0.19 0.19 0.19 0.22 0.25 0.24 0.22 0.19 0.23 0.26 0.26 0.26 0.26 0.26 0.27 0.27 0.25 0.23 0.22 0.20 0.21 0.24 0.23 0.22 0.22 0.23 0.22 0.26 0.33 0.43 0.47 0.49 0.51 0.51 0.50 0.49 0.45
0.18 0.17 0.18 0.20 0.23 0.22 0.20 0.20 0.18 0.23 0.23 0.24 0.24 0.25 0.26 0.27 0.27 0.25 0.23 0.22 0.21 0.22 0.24 0.22 0.22 0.22 0.18 0.23 0.23 0.28 0.36 0.42 0.47 0.47 0.47 0.46 0.45 0.43
0.16 0.15 0.17 0.20 0.19 0.20 0.21 0.21 0.21 0.23 0.24 0.24 0.23 0.23 0.23 0.25 0.27 0.28 0.26 0.23 0.20 0.20 0.23 0.23 0.21 0.21 0.20 0.21 0.24 0.27 0.27 0.31 0.39 0.41 0.43 0.43 0.43 0.42
0.16 0.15 0.16 0.17 0.18 0.19 0.20 0.21 0.20 0.21 0.24 0.23 0.23 0.22 0.22 0.23 0.25 0.27 0.29 0.28 0.27 0.23 0.23 0.24 0.20 0.20 0.19 0.20 0.19 0.26 0.28 0.28 0.30 0.31 0.34 0.36 0.35 0.36
0.18 0.15 0.14 0.14 0.15 0.18 0.19 0.19 0.19 0.18 0.23 0.22 0.22 0.23 0.24 0.26 0.28 0.28 0.29 0.29 0.29 0.29 0.29 0.29 0.27 0.26 0.24 0.22 0.20 0.23 0.25 0.27 0.28 0.28 0.28 0.29 0.30 0.31
0.17 0.15 0.14 0.13 0.13 0.15 0.17 0.19 0.17 0.17 0.20 0.22 0.22 0.24 0.26 0.26 0.26 0.28 0.27 0.28 0.27 0.28 0.32 0.33 0.32 0.29 0.25 0.24 0.24 0.24 0.28 0.26 0.29 0.30 0.30 0.29 0.31 0.33
0.15 0.14 0.13 0.13 0.12 0.13 0.14 0.16 0.16 0.15 0.18 0.22 0.23 0.22 0.24 0.24 0.25 0.27 0.27 0.28 0.26 0.26 0.27 0.31 0.33 0.33 0.31 0.29 0.25 0.26 0.27 0.28 0.31 0.32 0.30 0.28 0.31 0.34
0.14 0.13 0.12 0.13 0.13 0.13 0.13 0.13 0.15 0.15 0.15 0.19 0.22 0.22 0.22 0.22 0.24 0.25 0.26 0.26 0.25 0.26 0.26 0.29 0.30 0.29 0.29 0.31 0.34 0.30 0.30 0.29 0.31 0.32 0.32 0.29 0.29 0.33
0.14 0.13 0.13 0.13 0.13 0.13 0.13 0.13 0.13 0.14 0.16 0.16 0.17 0.21 0.22 0.22 0.22 0.22 0.23 0.24 0.24 0.25 0.26 0.28 0.29 0.28 0.24 0.23 0.29 0.34 0.30 0.31 0.31 0.30 0.31 0.30 0.29 0.31
0.15 0.14 0.13 0.13 0.13 0.13 0.13 0.13 0.14 0.14 0.14 0.15 0.16 0.14 0.16 0.21 0.21 0.21 0.21 0.21 0.21 0.22 0.23 0.25 0.26 0.26 0.24 0.23 0.25 0.28 0.33 0.30 0.28 0.28 0.28 0.31 0.33 0.34
0.17 0.16 0.15 0.15 0.14 0.13 0.13 0.12 0.13 0.14 0.14 0.14 0.16 0.17 0.14 0.13 0.15 0.20 0.21 0.21 0.21 0.20 0.20 0.21 0.25 0.28 0.29 0.29 0.25 0.26 0.29 0.32 0.31 0.30 0.30 0.28 0.27 0.28
0.18 0.17 0.17 0.17 0.16 0.15 0.14 0.13 0.12 0.13 0.13 0.13 0.14 0.17 0.18 0.16 0.12 0.13 0.15 0.16 0.18 0.19 0.19 0.22 0.26 0.27 0.26 0.24 0.22 0.23 0.26 0.29 0.30 0.30 0.30 0.29 0.27 0.24
0.20 0.19 0.19 0.18 0.18 0.17 0.15 0.14 0.13 0.13 0.13 0.13 0.13 0.14 0.17 0.18 0.17 0.14 0.13 0.13 0.14 0.14 0.17 0.22 0.24 0.25 0.25 0.24 0.24 0.23 0.24 0.25 0.26 0.25 0.26 0.28 0.28 0.28

GFSNE_prec_pwat_024.txt.gz
Precipitable_Water
0.35 0.34 0.33 0.32 0.31 0.29 0.27 0.26 0.24 0.19 0.18 0.20 0.20 0.22 0.22 0.23 0.24 0.23 0.24 0.25 0.27 0.29 0.29 0.31 0.38 0.40 0.39 0.35 0.32 0.33 0.41 0.47 0.48 0.58 0.70 0.79 0.81 0.80
0.33 0.34 0.35 0.33 0.31 0.27 0.26 0.26 0.25 0.23 0.18 0.19 0.20 0.23 0.24 0.24 0.25 0.25 0.25 0.25 0.25 0.24 0.25 0.25 0.31 0.40 0.39 0.36 0.34 0.31 0.35 0.45 0.47 0.50 0.62 0.70 0.75 0.78
0.35 0.35 0.33 0.34 0.30 0.25 0.25 0.25 0.23 0.22 0.18 0.18 0.22 0.24 0.25 0.25 0.26 0.28 0.28 0.28 0.27 0.26 0.29 0.28 0.26 0.29 0.34 0.36 0.35 0.33 0.32 0.40 0.46 0.47 0.55 0.66 0.70 0.75
0.34 0.33 0.33 0.30 0.24 0.24 0.24 0.22 0.21 0.21 0.21 0.19 0.23 0.24 0.24 0.25 0.26 0.27 0.26 0.28 0.28 0.27 0.34 0.32 0.27 0.24 0.30 0.35 0.35 0.34 0.32 0.35 0.48 0.48 0.49 0.60 0.67 0.69
0.34 0.33 0.28 0.23 0.21 0.21 0.20 0.20 0.21 0.22 0.25 0.24 0.23 0.25 0.25 0.26 0.25 0.26 0.27 0.29 0.29 0.30 0.31 0.30 0.25 0.21 0.23 0.31 0.34 0.35 0.34 0.35 0.45 0.47 0.47 0.59 0.68 0.73
0.32 0.25 0.21 0.19 0.19 0.19 0.18 0.20 0.21 0.24 0.25 0.23 0.23 0.23 0.24 0.24 0.23 0.23 0.23 0.26 0.28 0.32 0.31 0.29 0.26 0.24 0.22 0.26 0.31 0.33 0.36 0.37 0.42 0.50 0.49 0.57 0.65 0.76
0.20 0.19 0.19 0.19 0.19 0.19 0.19 0.21 0.23 0.24 0.24 0.23 0.23 0.23 0.22 0.22 0.22 0.23 0.22 0.23 0.25 0.28 0.32 0.32 0.28 0.27 0.29 0.34 0.32 0.34 0.36 0.39 0.42 0.48 0.49 0.52 0.60 0.69
0.18 0.18 0.19 0.19 0.19 0.20 0.22 0.23 0.25 0.24 0.23 0.24 0.23 0.22 0.22 0.22 0.22 0.21 0.22 0.22 0.21 0.28 0.32 0.29 0.31 0.26 0.26 0.30 0.34 0.31 0.34 0.40 0.42 0.47 0.45 0.45 0.55 0.62
0.18 0.18 0.18 0.18 0.19 0.20 0.22 0.24 0.27 0.26 0.25 0.24 0.23 0.24 0.24 0.23 0.24 0.22 0.21 0.22 0.23 0.26 0.29 0.26 0.29 0.26 0.28 0.27 0.28 0.25 0.30 0.40 0.43 0.48 0.45 0.44 0.51 0.52
0.20 0.19 0.18 0.18 0.19 0.21 0.22 0.22 0.23 0.23 0.21 0.24 0.25 0.25 0.24 0.24 0.25 0.25 0.24 0.23 0.24 0.25 0.26 0.22 0.26 0.25 0.28 0.28 0.27 0.24 0.29 0.39 0.44 0.49 0.48 0.46 0.46 0.51
0.20 0.20 0.18 0.17 0.20 0.20 0.19 0.20 0.21 0.21 0.24 0.25 0.26 0.25 0.25 0.26 0.26 0.25 0.22 0.20 0.21 0.23 0.24 0.23 0.24 0.23 0.24 0.26 0.28 0.25 0.28 0.39 0.45 0.48 0.50 0.50 0.49 0.48
0.20 0.19 0.17 0.17 0.18 0.19 0.18 0.19 0.20 0.21 0.20 0.24 0.25 0.25 0.24 0.25 0.27 0.27 0.25 0.21 0.21 0.21 0.26 0.23 0.23 0.24 0.21 0.25 0.26 0.26 0.29 0.36 0.45 0.48 0.49 0.50 0.49 0.47
0.18 0.18 0.18 0.17 0.16 0.17 0.18 0.20 0.20 0.20 0.20 0.24 0.24 0.24 0.25 0.24 0.25 0.27 0.30 0.25 0.22 0.21 0.24 0.25 0.23 0.24 0.24 0.24 0.26 0.25 0.28 0.37 0.43 0.46 0.48 0.48 0.48 0.48
0.17 0.18 0.18 0.15 0.15 0.15 0.17 0.18 0.19 0.19 0.21 0.24 0.24 0.23 0.24 0.25 0.26 0.27 0.28 0.28 0.29 0.25 0.26 0.28 0.23 0.22 0.21 0.21 0.21 0.26 0.26 0.33 0.39 0.41 0.44 0.45 0.44 0.44
0.18 0.17 0.16 0.14 0.15 0.15 0.16 0.16 0.19 0.19 0.19 0.22 0.22 0.23 0.25 0.27 0.28 0.29 0.31 0.32 0.30 0.30 0.29 0.28 0.26 0.25 0.24 0.21 0.21 0.23 0.25 0.27 0.33 0.35 0.38 0.39 0.40 0.41
0.19 0.17 0.16 0.16 0.16 0.16 0.17 0.17 0.17 0.17 0.18 0.20 0.23 0.24 0.25 0.26 0.26 0.28 0.27 0.29 0.28 0.28 0.32 0.32 0.31 0.29 0.26 0.24 0.24 0.23 0.26 0.28 0.30 0.30 0.32 0.34 0.34 0.35
0.17 0.17 0.16 0.16 0.15 0.15 0.16 0.16 0.16 0.15 0.16 0.19 0.22 0.23 0.23 0.24 0.25 0.27 0.27 0.27 0.27 0.26 0.27 0.32 0.33 0.33 0.31 0.28 0.23 0.24 0.24 0.26 0.32 0.33 0.31 0.29 0.30 0.33
0.17 0.16 0.16 0.16 0.15 0.14 0.15 0.15 0.16 0.15 0.14 0.18 0.18 0.20 0.23 0.23 0.23 0.25 0.26 0.26 0.25 0.26 0.27 0.29 0.31 0.28 0.28 0.29 0.31 0.27 0.25 0.27 0.29 0.31 0.31 0.28 0.28 0.33
0.17 0.17 0.17 0.16 0.16 0.15 0.14 0.14 0.14 0.16 0.16 0.15 0.18 0.17 0.16 0.21 0.23 0.22 0.23 0.24 0.24 0.25 0.26 0.29 0.29 0.28 0.24 0.22 0.28 0.32 0.30 0.30 0.30 0.30 0.31 0.29 0.28 0.31
0.19 0.18 0.17 0.17 0.17 0.15 0.14 0.13 0.13 0.15 0.16 0.16 0.17 0.19 0.18 0.15 0.17 0.21 0.22 0.22 0.22 0.23 0.24 0.26 0.27 0.26 0.26 0.25 0.27 0.30 0.33 0.33 0.31 0.30 0.31 0.33 0.35 0.35
0.20 0.20 0.19 0.19 0.18 0.17 0.17 0.16 0.15 0.14 0.14 0.14 0.16 0.17 0.19 0.19 0.15 0.15 0.19 0.20 0.20 0.21 0.21 0.22 0.25 0.28 0.29 0.30 0.26 0.26 0.29 0.32 0.32 0.30 0.30 0.29 0.28 0.29
0.21 0.20 0.21 0.20 0.20 0.19 0.18 0.18 0.16 0.15 0.15 0.14 0.15 0.15 0.17 0.18 0.19 0.16 0.14 0.16 0.17 0.19 0.20 0.23 0.26 0.27 0.27 0.26 0.24 0.25 0.27 0.30 0.31 0.31 0.31 0.31 0.29 0.25
0.22 0.21 0.22 0.22 0.22 0.21 0.20 0.19 0.17 0.16 0.15 0.15 0.15 0.14 0.15 0.16 0.18 0.19 0.18 0.14 0.13 0.14 0.16 0.21 0.24 0.26 0.25 0.24 0.24 0.25 0.25 0.26 0.28 0.27 0.28 0.30 0.30 0.30

GFSNE_prec_pwat_027.txt.gz
Precipitable_Water
0.46 0.46 0.40 0.36 0.38 0.38 0.34 0.30 0.27 0.21 0.20 0.23 0.23 0.26 0.25 0.26 0.26 0.27 0.27 0.26 0.26 0.26 0.24 0.24 0.27 0.28 0.28 0.37 0.41 0.36 0.34 0.33 0.36 0.41 0.47 0.48 0.60 0.77
0.44 0.41 0.35 0.37 0.39 0.37 0.33 0.30 0.25 0.23 0.19 0.22 0.21 0.23 0.25 0.26 0.28 0.28 0.28 0.29 0.28 0.29 0.29 0.27 0.24 0.24 0.26 0.29 0.35 0.37 0.35 0.34 0.33 0.37 0.44 0.44 0.53 0.71
0.38 0.34 0.37 0.38 0.35 0.34 0.32 0.24 0.24 0.23 0.20 0.19 0.20 0.23 0.26 0.27 0.28 0.29 0.28 0.28 0.27 0.28 0.28 0.30 0.29 0.28 0.29 0.24 0.24 0.32 0.35 0.34 0.32 0.33 0.41 0.43 0.46 0.58
0.38 0.35 0.34 0.35 0.32 0.27 0.23 0.22 0.21 0.21 0.20 0.17 0.19 0.23 0.26 0.28 0.27 0.26 0.27 0.28 0.28 0.30 0.31 0.32 0.32 0.34 0.30 0.26 0.23 0.24 0.33 0.35 0.33 0.33 0.38 0.42 0.42 0.52
0.36 0.34 0.32 0.29 0.22 0.21 0.21 0.20 0.19 0.20 0.20 0.20 0.21 0.25 0.25 0.26 0.26 0.27 0.26 0.26 0.28 0.29 0.31 0.33 0.33 0.33 0.32 0.27 0.23 0.21 0.28 0.35 0.35 0.33 0.37 0.45 0.41 0.48
0.34 0.30 0.24 0.21 0.20 0.20 0.18 0.19 0.19 0.19 0.20 0.21 0.22 0.24 0.24 0.26 0.27 0.24 0.25 0.27 0.24 0.24 0.25 0.30 0.37 0.38 0.33 0.27 0.23 0.19 0.24 0.34 0.37 0.36 0.38 0.44 0.43 0.50
0.27 0.22 0.21 0.20 0.19 0.19 0.18 0.18 0.19 0.20 0.21 0.22 0.21 0.21 0.22 0.23 0.22 0.23 0.23 0.23 0.23 0.25 0.26 0.29 0.34 0.37 0.32 0.32 0.29 0.28 0.30 0.32 0.36 0.37 0.42 0.42 0.46 0.51
0.21 0.20 0.20 0.21 0.20 0.20 0.21 0.21 0.22 0.20 0.21 0.22 0.21 0.19 0.21 0.23 0.27 0.26 0.23 0.21 0.18 0.24 0.28 0.30 0.32 0.36 0.33 0.33 0.39 0.40 0.34 0.29 0.32 0.39 0.43 0.42 0.46 0.49
0.21 0.20 0.20 0.20 0.21 0.20 0.20 0.20 0.22 0.23 0.25 0.24 0.22 0.23 0.25 0.24 0.24 0.23 0.22 0.23 0.22 0.24 0.26 0.24 0.30 0.31 0.33 0.30 0.32 0.30 0.28 0.26 0.29 0.39 0.46 0.43 0.45 0.52
0.22 0.21 0.20 0.20 0.19 0.19 0.18 0.18 0.19 0.21 0.23 0.23 0.22 0.24 0.25 0.24 0.23 0.23 0.23 0.22 0.23 0.23 0.23 0.21 0.24 0.24 0.29 0.30 0.28 0.28 0.26 0.22 0.28 0.40 0.46 0.45 0.46 0.52
0.23 0.22 0.21 0.18 0.19 0.17 0.16 0.17 0.18 0.20 0.22 0.22 0.22 0.25 0.26 0.25 0.24 0.24 0.23 0.22 0.21 0.21 0.26 0.26 0.24 0.24 0.26 0.25 0.26 0.25 0.27 0.24 0.28 0.40 0.45 0.46 0.45 0.51
0.22 0.21 0.21 0.18 0.18 0.15 0.15 0.16 0.16 0.19 0.19 0.19 0.23 0.26 0.26 0.27 0.27 0.27 0.27 0.23 0.23 0.20 0.25 0.27 0.25 0.25 0.21 0.28 0.29 0.28 0.29 0.27 0.29 0.40 0.45 0.47 0.47 0.46
0.20 0.19 0.20 0.19 0.16 0.14 0.15 0.16 0.17 0.17 0.19 0.21 0.24 0.25 0.26 0.26 0.26 0.27 0.28 0.28 0.25 0.24 0.24 0.26 0.24 0.23 0.25 0.27 0.31 0.32 0.28 0.31 0.36 0.41 0.44 0.47 0.49 0.48
0.20 0.19 0.20 0.18 0.14 0.14 0.16 0.17 0.16 0.19 0.21 0.21 0.23 0.24 0.24 0.24 0.26 0.27 0.31 0.32 0.31 0.28 0.28 0.27 0.24 0.24 0.23 0.22 0.23 0.31 0.28 0.29 0.39 0.40 0.43 0.47 0.48 0.48
0.21 0.19 0.17 0.17 0.16 0.16 0.16 0.17 0.18 0.19 0.18 0.18 0.20 0.23 0.25 0.26 0.27 0.28 0.29 0.31 0.34 0.31 0.29 0.28 0.27 0.26 0.24 0.22 0.22 0.25 0.26 0.27 0.35 0.38 0.43 0.44 0.44 0.44
0.23 0.21 0.18 0.18 0.17 0.17 0.18 0.18 0.19 0.19 0.16 0.18 0.19 0.22 0.26 0.25 0.24 0.27 0.27 0.28 0.28 0.31 0.34 0.32 0.30 0.29 0.25 0.26 0.26 0.24 0.27 0.26 0.32 0.34 0.38 0.39 0.40 0.41
0.21 0.19 0.18 0.19 0.17 0.17 0.17 0.17 0.18 0.18 0.17 0.16 0.19 0.19 0.21 0.24 0.24 0.25 0.26 0.26 0.25 0.25 0.27 0.32 0.35 0.33 0.32 0.28 0.25 0.24 0.24 0.26 0.32 0.34 0.33 0.31 0.33 0.34
0.20 0.18 0.18 0.19 0.18 0.17 0.17 0.16 0.17 0.17 0.17 0.17 0.17 0.19 0.18 0.18 0.23 0.24 0.25 0.25 0.24 0.25 0.26 0.28 0.31 0.29 0.28 0.29 0.30 0.28 0.24 0.24 0.29 0.31 0.31 0.30 0.31 0.34
0.19 0.19 0.19 0.20 0.19 0.18 0.17 0.16 0.15 0.16 0.17 0.17 0.17 0.18 0.19 0.19 0.17 0.22 0.23 0.23 0.23 0.24 0.25 0.27 0.28 0.26 0.24 0.22 0.28 0.31 0.27 0.30 0.29 0.27 0.29 0.29 0.28 0.33
0.21 0.19 0.19 0.21 0.20 0.19 0.19 0.18 0.17 0.17 0.16 0.16 0.16 0.17 0.18 0.19 0.20 0.16 0.19 0.21 0.21 0.22 0.23 0.25 0.26 0.25 0.24 0.24 0.26 0.28 0.32 0.33 0.30 0.29 0.30 0.33 0.33 0.34
0.22 0.22 0.22 0.22 0.21 0.21 0.20 0.20 0.19 0.18 0.16 0.15 0.16 0.17 0.17 0.18 0.18 0.20 0.17 0.18 0.19 0.21 0.21 0.22 0.25 0.28 0.30 0.31 0.27 0.27 0.30 0.32 0.33 0.31 0.32 0.30 0.29 0.29
0.23 0.22 0.22 0.22 0.22 0.22 0.22 0.22 0.20 0.20 0.18 0.17 0.16 0.16 0.17 0.17 0.18 0.18 0.20 0.17 0.16 0.17 0.19 0.22 0.26 0.28 0.29 0.27 0.26 0.26 0.28 0.30 0.31 0.32 0.32 0.32 0.30 0.27
0.25 0.24 0.24 0.23 0.24 0.23 0.22 0.22 0.22 0.21 0.19 0.17 0.16 0.16 0.16 0.16 0.18 0.18 0.18 0.19 0.18 0.14 0.15 0.18 0.23 0.26 0.26 0.25 0.24 0.26 0.26 0.27 0.28 0.27 0.29 0.30 0.30 0.31

GFSNE_prec_pwat_030.txt.gz
Precipitable_Water
0.43 0.44 0.46 0.46 0.46 0.43 0.38 0.36 0.31 0.25 0.22 0.24 0.21 0.25 0.27 0.26 0.25 0.25 0.25 0.27 0.28 0.28 0.27 0.26 0.26 0.27 0.28 0.27 0.27 0.27 0.34 0.41 0.38 0.36 0.34 0.34 0.36 0.46
0.42 0.44 0.45 0.45 0.42 0.38 0.36 0.35 0.33 0.28 0.20 0.21 0.22 0.24 0.24 0.23 0.23 0.24 0.27 0.27 0.26 0.26 0.26 0.26 0.28 0.29 0.29 0.30 0.27 0.27 0.30 0.34 0.36 0.37 0.34 0.33 0.34 0.41
0.36 0.38 0.43 0.41 0.37 0.36 0.34 0.31 0.26 0.22 0.18 0.19 0.20 0.21 0.21 0.22 0.22 0.26 0.26 0.25 0.25 0.27 0.28 0.27 0.29 0.31 0.31 0.30 0.31 0.30 0.26 0.25 0.29 0.34 0.35 0.34 0.33 0.37
0.36 0.37 0.37 0.36 0.32 0.30 0.27 0.22 0.19 0.19 0.18 0.16 0.19 0.19 0.21 0.22 0.25 0.25 0.25 0.27 0.27 0.27 0.26 0.28 0.28 0.31 0.31 0.32 0.34 0.31 0.28 0.24 0.24 0.31 0.35 0.33 0.33 0.35
0.35 0.33 0.31 0.29 0.25 0.22 0.19 0.19 0.18 0.18 0.18 0.17 0.17 0.19 0.22 0.24 0.23 0.24 0.25 0.27 0.28 0.29 0.27 0.26 0.27 0.29 0.32 0.35 0.34 0.34 0.31 0.26 0.23 0.28 0.32 0.33 0.33 0.35
0.32 0.30 0.27 0.22 0.20 0.19 0.18 0.17 0.17 0.17 0.17 0.17 0.18 0.19 0.21 0.23 0.24 0.22 0.23 0.26 0.26 0.26 0.25 0.24 0.26 0.28 0.33 0.36 0.36 0.33 0.29 0.27 0.27 0.27 0.31 0.34 0.35 0.36
0.27 0.25 0.23 0.21 0.20 0.19 0.18 0.18 0.18 0.18 0.17 0.17 0.17 0.19 0.21 0.20 0.19 0.25 0.26 0.25 0.24 0.25 0.24 0.24 0.28 0.30 0.32 0.35 0.38 0.35 0.33 0.31 0.29 0.28 0.31 0.35 0.38 0.37
0.22 0.22 0.21 0.21 0.21 0.20 0.21 0.21 0.20 0.18 0.17 0.19 0.20 0.21 0.21 0.23 0.25 0.24 0.22 0.21 0.18 0.23 0.23 0.21 0.25 0.25 0.30 0.39 0.41 0.39 0.41 0.42 0.35 0.27 0.28 0.34 0.40 0.38
0.23 0.21 0.20 0.21 0.21 0.21 0.20 0.19 0.16 0.19 0.20 0.20 0.20 0.22 0.22 0.22 0.23 0.21 0.20 0.20 0.19 0.21 0.22 0.18 0.22 0.23 0.28 0.30 0.34 0.33 0.35 0.34 0.32 0.28 0.27 0.36 0.42 0.39
0.24 0.22 0.21 0.21 0.20 0.18 0.17 0.14 0.15 0.17 0.19 0.21 0.21 0.20 0.21 0.23 0.24 0.23 0.22 0.21 0.23 0.24 0.26 0.19 0.23 0.23 0.26 0.27 0.27 0.27 0.27 0.28 0.29 0.28 0.26 0.41 0.43 0.42
0.23 0.23 0.22 0.21 0.20 0.19 0.16 0.13 0.14 0.15 0.19 0.20 0.19 0.20 0.24 0.27 0.27 0.27 0.24 0.22 0.20 0.22 0.26 0.23 0.24 0.27 0.26 0.24 0.28 0.28 0.27 0.27 0.28 0.26 0.28 0.42 0.44 0.43
0.23 0.22 0.21 0.20 0.19 0.19 0.15 0.13 0.13 0.15 0.16 0.17 0.19 0.23 0.25 0.28 0.28 0.28 0.28 0.22 0.23 0.21 0.25 0.24 0.24 0.24 0.22 0.29 0.31 0.36 0.31 0.31 0.31 0.27 0.32 0.43 0.45 0.43
0.21 0.20 0.22 0.21 0.20 0.17 0.14 0.14 0.15 0.17 0.17 0.19 0.20 0.21 0.25 0.26 0.25 0.26 0.28 0.27 0.24 0.25 0.29 0.27 0.25 0.23 0.22 0.22 0.26 0.32 0.36 0.35 0.33 0.31 0.37 0.43 0.46 0.45
0.19 0.21 0.22 0.20 0.17 0.16 0.16 0.16 0.17 0.17 0.18 0.17 0.17 0.19 0.22 0.24 0.25 0.26 0.27 0.28 0.30 0.31 0.33 0.31 0.25 0.25 0.23 0.21 0.21 0.27 0.32 0.34 0.34 0.34 0.39 0.44 0.46 0.47
0.22 0.22 0.21 0.19 0.19 0.18 0.17 0.17 0.17 0.17 0.17 0.15 0.16 0.18 0.19 0.25 0.26 0.26 0.26 0.28 0.29 0.33 0.34 0.31 0.28 0.27 0.26 0.23 0.22 0.24 0.27 0.31 0.33 0.36 0.40 0.42 0.43 0.44
0.24 0.24 0.23 0.19 0.20 0.19 0.19 0.19 0.18 0.17 0.16 0.16 0.16 0.18 0.20 0.19 0.23 0.25 0.24 0.26 0.25 0.26 0.31 0.36 0.34 0.31 0.26 0.25 0.25 0.25 0.28 0.27 0.34 0.35 0.40 0.41 0.44 0.45
0.26 0.23 0.20 0.19 0.19 0.18 0.18 0.18 0.18 0.17 0.16 0.16 0.15 0.17 0.18 0.19 0.18 0.24 0.25 0.24 0.23 0.23 0.24 0.28 0.32 0.35 0.32 0.30 0.24 0.26 0.27 0.27 0.33 0.36 0.35 0.34 0.38 0.40
0.22 0.20 0.19 0.19 0.19 0.19 0.18 0.18 0.18 0.17 0.16 0.15 0.16 0.16 0.17 0.18 0.18 0.19 0.23 0.23 0.22 0.23 0.23 0.26 0.28 0.26 0.29 0.29 0.31 0.26 0.28 0.26 0.30 0.32 0.34 0.32 0.33 0.37
0.21 0.20 0.19 0.19 0.20 0.20 0.19 0.19 0.18 0.18 0.18 0.16 0.16 0.15 0.17 0.17 0.18 0.19 0.17 0.21 0.21 0.22 0.24 0.25 0.26 0.23 0.22 0.21 0.29 0.31 0.27 0.26 0.28 0.28 0.28 0.30 0.33 0.36
0.22 0.21 0.20 0.20 0.20 0.20 0.20 0.20 0.20 0.20 0.18 0.17 0.15 0.15 0.16 0.16 0.17 0.17 0.19 0.17 0.19 0.21 0.22 0.23 0.23 0.23 0.23 0.23 0.24 0.27 0.31 0.31 0.30 0.27 0.28 0.31 0.34 0.36
0.23 0.22 0.22 0.22 0.22 0.23 0.21 0.21 0.21 0.20 0.20 0.18 0.16 0.16 0.15 0.16 0.15 0.17 0.17 0.19 0.17 0.17 0.18 0.20 0.23 0.27 0.29 0.30 0.26 0.26 0.28 0.31 0.32 0.30 0.30 0.28 0.27 0.28
0.24 0.24 0.25 0.24 0.25 0.25 0.23 0.23 0.21 0.21 0.21 0.21 0.19 0.17 0.16 0.16 0.15 0.16 0.17 0.17 0.18 0.16 0.15 0.19 0.25 0.27 0.28 0.27 0.25 0.26 0.27 0.29 0.31 0.31 0.31 0.30 0.28 0.26
0.30 0.29 0.27 0.25 0.24 0.25 0.25 0.23 0.21 0.21 0.21 0.22 0.20 0.18 0.16 0.14 0.15 0.17 0.16 0.17 0.17 0.18 0.14 0.15 0.22 0.25 0.26 0.26 0.26 0.26 0.26 0.27 0.28 0.28 0.28 0.31 0.31 0.33

GFSNE_prec_pwat_033.txt.gz
Precipitable_Water
0.42 0.42 0.42 0.43 0.46 0.47 0.46 0.42 0.34 0.26 0.23 0.25 0.25 0.26 0.23 0.24 0.25 0.24 0.24 0.23 0.23 0.24 0.24 0.25 0.26 0.26 0.27 0.29 0.31 0.31 0.33 0.31 0.30 0.32 0.42 0.38 0.39 0.37
0.38 0.36 0.37 0.40 0.40 0.43 0.43 0.38 0.34 0.29 0.22 0.24 0.20 0.20 0.22 0.23 0.22 0.22 0.21 0.22 0.23 0.24 0.25 0.26 0.27 0.28 0.27 0.28 0.31 0.31 0.32 0.32 0.30 0.31 0.37 0.35 0.37 0.36
0.36 0.37 0.36 0.38 0.39 0.38 0.35 0.32 0.30 0.25 0.17 0.17 0.18 0.19 0.18 0.19 0.19 0.21 0.23 0.23 0.25 0.25 0.27 0.26 0.27 0.27 0.28 0.29 0.30 0.30 0.31 0.31 0.31 0.31 0.28 0.29 0.32 0.34
0.36 0.37 0.34 0.35 0.31 0.30 0.28 0.24 0.19 0.18 0.16 0.13 0.15 0.16 0.17 0.19 0.20 0.20 0.22 0.24 0.24 0.26 0.28 0.27 0.28 0.29 0.28 0.29 0.30 0.31 0.31 0.35 0.34 0.30 0.26 0.24 0.27 0.31
0.36 0.33 0.32 0.29 0.25 0.23 0.19 0.17 0.17 0.17 0.16 0.15 0.14 0.16 0.17 0.19 0.19 0.22 0.23 0.24 0.25 0.26 0.27 0.27 0.27 0.27 0.27 0.26 0.29 0.31 0.35 0.34 0.34 0.33 0.29 0.25 0.25 0.27
0.32 0.31 0.28 0.25 0.22 0.20 0.18 0.17 0.17 0.16 0.16 0.15 0.14 0.15 0.18 0.20 0.22 0.21 0.22 0.24 0.23 0.24 0.24 0.24 0.26 0.26 0.25 0.26 0.28 0.29 0.33 0.37 0.35 0.32 0.30 0.27 0.25 0.26
0.29 0.26 0.24 0.23 0.22 0.20 0.17 0.17 0.18 0.17 0.16 0.14 0.15 0.16 0.17 0.19 0.20 0.23 0.20 0.20 0.20 0.21 0.21 0.22 0.23 0.22 0.22 0.25 0.28 0.32 0.35 0.36 0.35 0.33 0.32 0.32 0.27 0.25
0.24 0.23 0.23 0.23 0.21 0.21 0.20 0.20 0.20 0.17 0.13 0.14 0.16 0.16 0.18 0.21 0.21 0.19 0.20 0.18 0.16 0.21 0.21 0.19 0.23 0.21 0.22 0.24 0.29 0.34 0.40 0.38 0.39 0.39 0.34 0.31 0.26 0.24
0.27 0.24 0.23 0.23 0.21 0.20 0.20 0.19 0.17 0.15 0.15 0.16 0.16 0.18 0.17 0.19 0.19 0.20 0.21 0.21 0.20 0.21 0.23 0.20 0.24 0.22 0.24 0.26 0.28 0.31 0.34 0.36 0.33 0.32 0.32 0.30 0.25 0.27
0.29 0.25 0.23 0.22 0.21 0.20 0.18 0.16 0.15 0.12 0.14 0.17 0.19 0.18 0.19 0.21 0.24 0.25 0.25 0.24 0.24 0.23 0.26 0.20 0.24 0.22 0.25 0.27 0.29 0.30 0.32 0.31 0.30 0.30 0.29 0.29 0.26 0.31
0.29 0.24 0.23 0.22 0.21 0.20 0.17 0.16 0.13 0.12 0.16 0.17 0.18 0.20 0.22 0.24 0.27 0.28 0.24 0.22 0.19 0.20 0.25 0.25 0.23 0.22 0.23 0.23 0.30 0.31 0.31 0.32 0.29 0.30 0.31 0.29 0.28 0.37
0.26 0.24 0.23 0.21 0.20 0.20 0.18 0.15 0.11 0.13 0.15 0.16 0.17 0.18 0.21 0.24 0.26 0.26 0.25 0.21 0.20 0.19 0.24 0.24 0.25 0.25 0.19 0.24 0.25 0.28 0.30 0.34 0.31 0.31 0.31 0.29 0.33 0.40
0.23 0.22 0.22 0.22 0.21 0.20 0.18 0.15 0.14 0.16 0.16 0.17 0.17 0.17 0.19 0.20 0.24 0.25 0.26 0.25 0.22 0.21 0.27 0.30 0.26 0.26 0.24 0.21 0.23 0.26 0.31 0.34 0.36 0.35 0.34 0.33 0.38 0.42
0.24 0.23 0.23 0.24 0.21 0.19 0.18 0.17 0.17 0.17 0.16 0.16 0.16 0.15 0.17 0.18 0.21 0.24 0.25 0.26 0.27 0.27 0.31 0.32 0.27 0.26 0.24 0.22 0.21 0.24 0.26 0.32 0.36 0.34 0.34 0.36 0.40 0.44
0.27 0.25 0.23 0.23 0.21 0.19 0.19 0.19 0.19 0.17 0.16 0.15 0.14 0.15 0.16 0.19 0.19 0.21 0.25 0.26 0.26 0.28 0.30 0.34 0.31 0.29 0.28 0.24 0.23 0.23 0.25 0.30 0.36 0.35 0.37 0.35 0.39 0.43
0.27 0.25 0.24 0.24 0.23 0.20 0.20 0.20 0.19 0.18 0.17 0.16 0.15 0.15 0.17 0.18 0.18 0.18 0.22 0.24 0.23 0.23 0.27 0.29 0.31 0.30 0.28 0.28 0.26 0.24 0.27 0.26 0.32 0.36 0.37 0.39 0.42 0.44
0.28 0.25 0.23 0.22 0.20 0.19 0.20 0.19 0.19 0.19 0.17 0.17 0.15 0.14 0.15 0.16 0.16 0.19 0.19 0.20 0.22 0.21 0.22 0.26 0.29 0.27 0.32 0.30 0.26 0.26 0.26 0.27 0.31 0.36 0.35 0.34 0.38 0.42
0.28 0.24 0.21 0.20 0.20 0.19 0.19 0.19 0.19 0.19 0.19 0.18 0.17 0.15 0.14 0.15 0.15 0.17 0.19 0.17 0.19 0.21 0.22 0.24 0.25 0.22 0.25 0.30 0.31 0.25 0.27 0.27 0.31 0.33 0.35 0.32 0.34 0.39
0.25 0.22 0.20 0.20 0.19 0.19 0.21 0.20 0.18 0.20 0.20 0.20 0.18 0.15 0.14 0.15 0.14 0.16 0.17 0.18 0.16 0.20 0.22 0.23 0.22 0.22 0.20 0.19 0.28 0.32 0.26 0.26 0.27 0.28 0.29 0.31 0.33 0.35
0.26 0.22 0.20 0.20 0.20 0.20 0.20 0.20 0.20 0.20 0.20 0.20 0.19 0.16 0.15 0.15 0.14 0.14 0.16 0.16 0.18 0.17 0.17 0.20 0.21 0.22 0.22 0.22 0.23 0.28 0.31 0.29 0.28 0.27 0.27 0.31 0.34 0.38
0.26 0.25 0.23 0.22 0.22 0.22 0.21 0.22 0.22 0.21 0.20 0.20 0.19 0.19 0.17 0.16 0.14 0.14 0.16 0.16 0.16 0.17 0.14 0.16 0.23 0.27 0.29 0.30 0.25 0.25 0.28 0.32 0.33 0.30 0.30 0.28 0.26 0.27
0.27 0.28 0.28 0.25 0.24 0.24 0.24 0.25 0.24 0.22 0.21 0.20 0.19 0.21 0.20 0.17 0.14 0.13 0.15 0.15 0.16 0.16 0.16 0.15 0.23 0.26 0.27 0.26 0.24 0.25 0.26 0.29 0.31 0.32 0.32 0.31 0.27 0.24
0.29 0.29 0.30 0.30 0.29 0.27 0.26 0.25 0.25 0.24 0.22 0.20 0.20 0.21 0.21 0.17 0.15 0.15 0.15 0.15 0.16 0.15 0.15 0.15 0.17 0.24 0.24 0.24 0.25 0.25 0.26 0.26 0.27 0.27 0.28 0.32 0.33 0.34

GFSNE_prec_pwat_036.txt.gz
Precipitable_Water
0.42 0.41 0.39 0.39 0.41 0.45 0.44 0.41 0.35 0.27 0.26 0.29 0.27 0.28 0.25 0.22 0.21 0.21 0.21 0.20 0.21 0.21 0.21 0.22 0.24 0.26 0.28 0.29 0.31 0.31 0.31 0.33 0.33 0.31 0.32 0.32 0.34 0.42
0.42 0.40 0.37 0.38 0.39 0.41 0.42 0.41 0.37 0.32 0.25 0.28 0.25 0.21 0.19 0.17 0.17 0.18 0.18 0.19 0.19 0.21 0.23 0.25 0.26 0.28 0.28 0.29 0.29 0.29 0.30 0.30 0.30 0.30 0.31 0.31 0.32 0.37
0.45 0.41 0.39 0.40 0.37 0.36 0.34 0.31 0.30 0.28 0.22 0.18 0.17 0.17 0.15 0.15 0.16 0.18 0.19 0.20 0.21 0.23 0.25 0.25 0.27 0.27 0.26 0.28 0.29 0.28 0.30 0.30 0.31 0.31 0.30 0.30 0.33 0.36
0.43 0.41 0.37 0.36 0.34 0.31 0.28 0.25 0.22 0.20 0.17 0.13 0.14 0.15 0.14 0.16 0.17 0.18 0.20 0.21 0.22 0.24 0.24 0.25 0.24 0.24 0.26 0.28 0.29 0.28 0.27 0.28 0.30 0.31 0.31 0.32 0.31 0.30
0.44 0.39 0.35 0.33 0.29 0.26 0.24 0.21 0.20 0.19 0.18 0.15 0.14 0.16 0.14 0.16 0.17 0.20 0.21 0.22 0.23 0.22 0.21 0.21 0.22 0.23 0.26 0.27 0.26 0.26 0.27 0.28 0.29 0.30 0.32 0.33 0.31 0.29
0.41 0.37 0.33 0.28 0.24 0.22 0.21 0.19 0.19 0.17 0.17 0.16 0.14 0.13 0.14 0.17 0.19 0.19 0.18 0.20 0.18 0.21 0.21 0.22 0.24 0.25 0.24 0.23 0.23 0.23 0.26 0.29 0.30 0.30 0.34 0.33 0.31 0.28
0.39 0.33 0.28 0.26 0.24 0.23 0.20 0.18 0.19 0.17 0.16 0.14 0.11 0.12 0.13 0.15 0.17 0.19 0.18 0.18 0.20 0.21 0.21 0.22 0.24 0.23 0.23 0.23 0.23 0.22 0.25 0.29 0.34 0.35 0.35 0.34 0.32 0.30
0.32 0.29 0.29 0.27 0.24 0.22 0.22 0.21 0.20 0.17 0.14 0.12 0.11 0.11 0.14 0.16 0.18 0.17 0.17 0.19 0.17 0.23 0.23 0.20 0.24 0.22 0.23 0.23 0.24 0.25 0.27 0.33 0.36 0.34 0.33 0.34 0.33 0.31
0.30 0.29 0.28 0.28 0.24 0.21 0.21 0.20 0.20 0.19 0.16 0.12 0.11 0.14 0.14 0.16 0.17 0.18 0.20 0.21 0.21 0.23 0.23 0.19 0.23 0.22 0.24 0.25 0.26 0.27 0.29 0.32 0.33 0.33 0.32 0.32 0.30 0.29
0.31 0.30 0.29 0.27 0.23 0.22 0.20 0.19 0.18 0.17 0.13 0.14 0.15 0.15 0.17 0.20 0.21 0.23 0.24 0.24 0.24 0.23 0.24 0.18 0.22 0.22 0.25 0.25 0.25 0.30 0.30 0.31 0.31 0.31 0.30 0.29 0.28 0.27
0.31 0.31 0.30 0.26 0.23 0.23 0.20 0.18 0.17 0.14 0.15 0.16 0.18 0.18 0.18 0.20 0.22 0.24 0.22 0.21 0.18 0.19 0.23 0.23 0.23 0.23 0.25 0.24 0.24 0.27 0.28 0.30 0.31 0.32 0.28 0.27 0.29 0.29
0.30 0.30 0.28 0.23 0.23 0.22 0.20 0.18 0.14 0.12 0.14 0.15 0.17 0.17 0.17 0.18 0.19 0.22 0.23 0.20 0.20 0.18 0.23 0.21 0.23 0.25 0.20 0.24 0.24 0.24 0.25 0.30 0.31 0.32 0.29 0.29 0.31 0.30
0.28 0.28 0.26 0.25 0.23 0.23 0.22 0.18 0.15 0.16 0.16 0.16 0.16 0.17 0.17 0.17 0.18 0.19 0.22 0.23 0.21 0.20 0.24 0.27 0.24 0.25 0.24 0.22 0.24 0.25 0.25 0.27 0.30 0.33 0.34 0.34 0.33 0.33
0.29 0.30 0.29 0.26 0.24 0.24 0.22 0.19 0.19 0.19 0.18 0.17 0.15 0.15 0.15 0.15 0.17 0.19 0.18 0.23 0.26 0.25 0.26 0.28 0.26 0.26 0.24 0.22 0.21 0.23 0.24 0.27 0.32 0.35 0.35 0.34 0.33 0.35
0.32 0.32 0.31 0.27 0.25 0.24 0.23 0.21 0.20 0.19 0.18 0.16 0.15 0.15 0.15 0.16 0.17 0.17 0.19 0.21 0.25 0.25 0.25 0.27 0.28 0.27 0.26 0.25 0.24 0.23 0.23 0.25 0.33 0.35 0.36 0.34 0.32 0.37
0.33 0.33 0.33 0.29 0.26 0.25 0.24 0.22 0.21 0.20 0.18 0.17 0.17 0.17 0.17 0.16 0.15 0.16 0.17 0.18 0.18 0.20 0.24 0.27 0.28 0.27 0.24 0.28 0.27 0.24 0.26 0.24 0.30 0.34 0.36 0.34 0.37 0.41
0.33 0.32 0.29 0.26 0.24 0.23 0.23 0.21 0.21 0.20 0.18 0.19 0.19 0.18 0.17 0.15 0.15 0.16 0.17 0.17 0.16 0.17 0.22 0.24 0.26 0.26 0.27 0.29 0.26 0.26 0.25 0.26 0.30 0.34 0.34 0.34 0.37 0.40
0.31 0.28 0.28 0.25 0.23 0.21 0.21 0.20 0.20 0.20 0.19 0.19 0.19 0.19 0.18 0.15 0.14 0.15 0.16 0.16 0.16 0.16 0.20 0.22 0.22 0.22 0.24 0.26 0.30 0.25 0.25 0.26 0.28 0.31 0.33 0.32 0.33 0.39
0.28 0.28 0.27 0.24 0.23 0.22 0.21 0.20 0.19 0.21 0.21 0.19 0.19 0.20 0.19 0.15 0.15 0.14 0.14 0.15 0.15 0.17 0.16 0.18 0.20 0.21 0.19 0.18 0.25 0.31 0.25 0.26 0.27 0.29 0.30 0.32 0.32 0.35
0.29 0.29 0.28 0.25 0.24 0.21 0.21 0.20 0.21 0.21 0.21 0.20 0.20 0.20 0.19 0.17 0.15 0.14 0.14 0.14 0.15 0.16 0.15 0.16 0.20 0.22 0.21 0.20 0.21 0.26 0.31 0.27 0.27 0.27 0.28 0.31 0.35 0.38
0.29 0.30 0.30 0.27 0.26 0.24 0.22 0.22 0.21 0.21 0.21 0.21 0.21 0.20 0.20 0.20 0.17 0.15 0.13 0.15 0.15 0.15 0.14 0.14 0.21 0.26 0.28 0.29 0.24 0.24 0.27 0.32 0.32 0.30 0.30 0.28 0.27 0.28
0.30 0.30 0.31 0.29 0.29 0.27 0.24 0.24 0.23 0.23 0.23 0.22 0.22 0.21 0.20 0.20 0.19 0.15 0.14 0.14 0.15 0.15 0.14 0.15 0.19 0.25 0.25 0.25 0.23 0.24 0.25 0.28 0.30 0.31 0.32 0.30 0.27 0.23
0.30 0.31 0.32 0.30 0.30 0.31 0.30 0.27 0.25 0.25 0.24 0.24 0.23 0.22 0.20 0.19 0.20 0.18 0.15 0.15 0.15 0.14 0.14 0.13 0.17 0.20 0.23 0.24 0.24 0.25 0.25 0.25 0.26 0.26 0.27 0.31 0.32 0.32

GFSNE_prec_pwat_039.txt.gz
Precipitable_Water
0.45 0.45 0.45 0.45 0.43 0.42 0.42 0.42 0.37 0.30 0.31 0.34 0.32 0.33 0.29 0.25 0.22 0.19 0.16 0.16 0.18 0.19 0.20 0.22 0.23 0.25 0.26 0.27 0.28 0.28 0.30 0.31 0.30 0.30 0.33 0.34 0.36 0.38
0.47 0.45 0.43 0.43 0.40 0.41 0.40 0.39 0.37 0.33 0.25 0.28 0.24 0.23 0.22 0.19 0.16 0.16 0.17 0.19 0.19 0.20 0.22 0.23 0.24 0.26 0.27 0.28 0.28 0.28 0.29 0.29 0.29 0.31 0.31 0.32 0.32 0.34
0.45 0.45 0.42 0.43 0.40 0.38 0.36 0.34 0.29 0.26 0.20 0.18 0.19 0.19 0.17 0.16 0.14 0.16 0.18 0.18 0.20 0.21 0.22 0.23 0.24 0.25 0.24 0.25 0.26 0.28 0.28 0.28 0.27 0.27 0.29 0.30 0.32 0.34
0.42 0.43 0.42 0.41 0.37 0.35 0.31 0.28 0.25 0.23 0.19 0.15 0.16 0.16 0.15 0.15 0.14 0.16 0.17 0.19 0.20 0.21 0.21 0.21 0.20 0.21 0.22 0.24 0.25 0.28 0.28 0.28 0.27 0.27 0.27 0.28 0.30 0.32
0.43 0.42 0.40 0.38 0.33 0.30 0.27 0.24 0.22 0.21 0.20 0.16 0.15 0.16 0.14 0.14 0.14 0.16 0.18 0.18 0.19 0.18 0.18 0.20 0.22 0.23 0.24 0.25 0.26 0.27 0.25 0.25 0.25 0.26 0.25 0.25 0.26 0.30
0.42 0.42 0.36 0.33 0.28 0.26 0.24 0.22 0.20 0.19 0.18 0.17 0.15 0.13 0.13 0.13 0.15 0.15 0.14 0.17 0.16 0.19 0.21 0.23 0.24 0.24 0.25 0.25 0.24 0.23 0.23 0.24 0.23 0.25 0.26 0.27 0.29 0.29
0.38 0.35 0.32 0.28 0.26 0.25 0.24 0.22 0.20 0.19 0.17 0.16 0.14 0.12 0.11 0.12 0.13 0.15 0.14 0.15 0.18 0.21 0.21 0.22 0.23 0.23 0.23 0.24 0.24 0.23 0.23 0.23 0.24 0.25 0.29 0.32 0.32 0.32
0.31 0.31 0.30 0.29 0.28 0.28 0.27 0.24 0.22 0.19 0.17 0.15 0.13 0.10 0.11 0.14 0.14 0.14 0.16 0.16 0.15 0.24 0.22 0.20 0.22 0.20 0.23 0.25 0.25 0.26 0.26 0.26 0.26 0.27 0.32 0.33 0.33 0.34
0.31 0.30 0.29 0.28 0.28 0.28 0.28 0.24 0.22 0.21 0.20 0.17 0.11 0.12 0.13 0.14 0.15 0.15 0.16 0.18 0.19 0.23 0.22 0.18 0.21 0.20 0.24 0.25 0.25 0.25 0.28 0.29 0.28 0.30 0.30 0.31 0.30 0.31
0.31 0.30 0.30 0.29 0.28 0.28 0.26 0.22 0.21 0.21 0.19 0.15 0.14 0.15 0.16 0.17 0.17 0.18 0.19 0.20 0.22 0.23 0.23 0.17 0.22 0.21 0.25 0.25 0.25 0.25 0.27 0.28 0.29 0.30 0.31 0.30 0.30 0.29
0.30 0.32 0.31 0.29 0.28 0.27 0.22 0.21 0.20 0.20 0.19 0.16 0.18 0.18 0.19 0.17 0.17 0.17 0.15 0.16 0.16 0.19 0.22 0.22 0.21 0.22 0.23 0.23 0.25 0.25 0.26 0.25 0.25 0.27 0.28 0.30 0.30 0.27
0.30 0.31 0.31 0.29 0.27 0.26 0.23 0.21 0.19 0.19 0.16 0.16 0.17 0.17 0.18 0.18 0.18 0.17 0.17 0.14 0.15 0.17 0.23 0.20 0.21 0.23 0.19 0.24 0.25 0.26 0.26 0.25 0.25 0.26 0.29 0.31 0.31 0.28
0.28 0.29 0.30 0.30 0.28 0.28 0.25 0.22 0.21 0.20 0.17 0.17 0.17 0.17 0.17 0.17 0.17 0.17 0.18 0.17 0.15 0.17 0.23 0.24 0.21 0.22 0.24 0.22 0.24 0.27 0.27 0.25 0.24 0.28 0.33 0.33 0.34 0.32
0.27 0.30 0.31 0.31 0.30 0.30 0.27 0.25 0.23 0.22 0.19 0.18 0.17 0.17 0.16 0.16 0.17 0.17 0.17 0.18 0.20 0.20 0.24 0.26 0.23 0.23 0.23 0.21 0.21 0.26 0.27 0.26 0.27 0.31 0.34 0.36 0.35 0.34
0.31 0.31 0.32 0.32 0.31 0.31 0.30 0.27 0.25 0.23 0.20 0.18 0.17 0.17 0.18 0.18 0.18 0.17 0.17 0.18 0.18 0.19 0.20 0.24 0.26 0.26 0.25 0.22 0.22 0.25 0.25 0.24 0.28 0.30 0.34 0.36 0.35 0.33
0.32 0.32 0.32 0.33 0.33 0.32 0.29 0.28 0.25 0.23 0.21 0.19 0.18 0.18 0.19 0.19 0.17 0.16 0.15 0.16 0.15 0.16 0.18 0.23 0.25 0.25 0.23 0.24 0.25 0.25 0.27 0.23 0.27 0.30 0.34 0.36 0.35 0.35
0.32 0.32 0.30 0.30 0.29 0.29 0.27 0.27 0.25 0.24 0.21 0.20 0.19 0.18 0.18 0.19 0.18 0.16 0.15 0.15 0.14 0.14 0.15 0.19 0.24 0.24 0.24 0.26 0.24 0.27 0.25 0.25 0.27 0.30 0.32 0.32 0.35 0.38
0.29 0.27 0.27 0.29 0.29 0.29 0.27 0.25 0.24 0.22 0.21 0.21 0.19 0.19 0.18 0.19 0.18 0.16 0.15 0.14 0.14 0.14 0.16 0.15 0.18 0.21 0.22 0.25 0.29 0.26 0.24 0.25 0.26 0.30 0.32 0.31 0.32 0.37
0.26 0.25 0.26 0.28 0.29 0.29 0.27 0.25 0.22 0.22 0.22 0.21 0.20 0.19 0.19 0.19 0.18 0.17 0.15 0.14 0.13 0.14 0.15 0.15 0.17 0.20 0.19 0.18 0.24 0.31 0.24 0.25 0.25 0.28 0.29 0.31 0.30 0.33
0.28 0.25 0.25 0.27 0.28 0.29 0.28 0.26 0.23 0.22 0.21 0.22 0.21 0.20 0.19 0.19 0.18 0.18 0.16 0.13 0.13 0.14 0.14 0.14 0.17 0.22 0.21 0.20 0.21 0.25 0.31 0.27 0.27 0.27 0.27 0.31 0.34 0.37
0.29 0.27 0.26 0.28 0.29 0.30 0.29 0.28 0.25 0.22 0.22 0.21 0.21 0.20 0.20 0.20 0.19 0.19 0.17 0.14 0.14 0.13 0.13 0.13 0.15 0.25 0.27 0.28 0.23 0.24 0.27 0.31 0.31 0.28 0.28 0.26 0.26 0.27
0.28 0.27 0.28 0.29 0.30 0.30 0.30 0.29 0.27 0.24 0.23 0.21 0.21 0.21 0.22 0.21 0.19 0.19 0.18 0.15 0.14 0.14 0.13 0.14 0.16 0.21 0.24 0.24 0.23 0.24 0.25 0.28 0.30 0.31 0.31 0.29 0.26 0.22
0.29 0.29 0.29 0.30 0.31 0.30 0.30 0.29 0.28 0.26 0.25 0.24 0.23 0.23 0.23 0.21 0.21 0.20 0.19 0.17 0.16 0.14 0.14 0.13 0.14 0.17 0.19 0.23 0.23 0.24 0.24 0.25 0.26 0.25 0.27 0.31 0.32 0.32

GFSNE_prec_pwat_045.txt.gz
Precipitable_Water
0.63 0.59 0.54 0.50 0.49 0.44 0.40 0.37 0.30 0.19 0.18 0.23 0.24 0.29 0.26 0.24 0.21 0.20 0.18 0.16 0.15 0.15 0.16 0.17 0.19 0.20 0.21 0.23 0.24 0.25 0.25 0.27 0.29 0.31 0.33 0.32 0.35 0.36
0.62 0.57 0.53 0.49 0.45 0.43 0.40 0.34 0.32 0.25 0.18 0.23 0.24 0.25 0.24 0.22 0.21 0.20 0.17 0.15 0.15 0.15 0.17 0.18 0.19 0.20 0.21 0.22 0.23 0.23 0.24 0.25 0.27 0.28 0.29 0.31 0.34 0.34
0.59 0.55 0.49 0.47 0.41 0.37 0.35 0.33 0.31 0.29 0.23 0.23 0.25 0.24 0.22 0.21 0.20 0.19 0.16 0.15 0.15 0.16 0.17 0.17 0.18 0.20 0.21 0.20 0.21 0.22 0.23 0.24 0.25 0.27 0.28 0.29 0.32 0.33
0.55 0.51 0.46 0.44 0.37 0.35 0.35 0.33 0.30 0.29 0.25 0.20 0.23 0.22 0.20 0.20 0.19 0.17 0.14 0.15 0.16 0.16 0.17 0.18 0.19 0.20 0.21 0.22 0.23 0.24 0.25 0.26 0.26 0.26 0.27 0.30 0.29 0.29
0.54 0.48 0.42 0.37 0.33 0.34 0.34 0.31 0.30 0.28 0.25 0.23 0.21 0.22 0.20 0.20 0.18 0.15 0.14 0.16 0.16 0.16 0.16 0.18 0.20 0.21 0.23 0.23 0.24 0.24 0.25 0.26 0.26 0.26 0.26 0.26 0.27 0.27
0.52 0.43 0.37 0.33 0.32 0.33 0.33 0.31 0.29 0.26 0.24 0.23 0.22 0.21 0.20 0.19 0.17 0.13 0.13 0.14 0.14 0.16 0.18 0.19 0.20 0.22 0.22 0.22 0.23 0.23 0.24 0.26 0.26 0.26 0.26 0.25 0.25 0.25
0.41 0.36 0.33 0.33 0.34 0.35 0.32 0.30 0.28 0.25 0.24 0.23 0.22 0.21 0.18 0.18 0.14 0.13 0.13 0.14 0.14 0.16 0.17 0.19 0.19 0.21 0.22 0.22 0.22 0.23 0.24 0.26 0.26 0.26 0.27 0.27 0.27 0.26
0.31 0.29 0.30 0.31 0.33 0.34 0.32 0.31 0.29 0.26 0.25 0.24 0.23 0.18 0.18 0.18 0.15 0.14 0.14 0.13 0.12 0.17 0.16 0.16 0.18 0.20 0.21 0.22 0.23 0.25 0.26 0.26 0.27 0.26 0.26 0.29 0.28 0.27
0.26 0.26 0.28 0.30 0.31 0.32 0.31 0.32 0.33 0.31 0.28 0.26 0.21 0.20 0.20 0.18 0.15 0.15 0.15 0.15 0.14 0.16 0.16 0.15 0.17 0.18 0.23 0.23 0.24 0.25 0.26 0.27 0.26 0.26 0.27 0.28 0.28 0.28
0.26 0.27 0.28 0.29 0.30 0.30 0.30 0.32 0.32 0.30 0.28 0.26 0.24 0.23 0.23 0.19 0.18 0.18 0.17 0.17 0.17 0.17 0.17 0.13 0.16 0.17 0.22 0.22 0.23 0.26 0.27 0.26 0.26 0.27 0.28 0.26 0.25 0.24
0.26 0.27 0.28 0.28 0.29 0.29 0.31 0.31 0.28 0.28 0.29 0.28 0.26 0.25 0.24 0.20 0.20 0.19 0.17 0.15 0.14 0.15 0.17 0.16 0.16 0.16 0.19 0.21 0.24 0.26 0.24 0.25 0.27 0.28 0.28 0.27 0.26 0.24
0.27 0.28 0.29 0.28 0.29 0.30 0.30 0.30 0.27 0.27 0.27 0.26 0.25 0.24 0.23 0.21 0.20 0.19 0.18 0.15 0.15 0.14 0.16 0.15 0.15 0.17 0.14 0.20 0.25 0.24 0.25 0.25 0.26 0.27 0.28 0.26 0.25 0.26
0.28 0.28 0.29 0.29 0.30 0.29 0.31 0.32 0.31 0.31 0.28 0.27 0.26 0.24 0.21 0.21 0.20 0.21 0.20 0.19 0.16 0.15 0.17 0.17 0.16 0.16 0.17 0.16 0.20 0.23 0.25 0.25 0.27 0.28 0.29 0.27 0.29 0.30
0.27 0.28 0.29 0.29 0.30 0.31 0.32 0.34 0.34 0.33 0.30 0.28 0.27 0.25 0.22 0.22 0.21 0.21 0.21 0.21 0.21 0.18 0.19 0.19 0.16 0.17 0.17 0.17 0.18 0.22 0.24 0.26 0.28 0.28 0.28 0.29 0.30 0.33
0.33 0.31 0.30 0.30 0.32 0.31 0.33 0.33 0.34 0.31 0.29 0.27 0.27 0.26 0.25 0.24 0.23 0.21 0.21 0.22 0.21 0.19 0.18 0.19 0.17 0.17 0.18 0.18 0.19 0.20 0.20 0.24 0.28 0.27 0.27 0.29 0.32 0.34
0.30 0.33 0.34 0.33 0.34 0.34 0.32 0.32 0.33 0.32 0.30 0.28 0.28 0.28 0.28 0.24 0.22 0.21 0.20 0.20 0.19 0.17 0.19 0.19 0.18 0.17 0.16 0.17 0.19 0.20 0.23 0.23 0.26 0.27 0.28 0.31 0.35 0.36
0.25 0.25 0.28 0.30 0.27 0.31 0.30 0.29 0.30 0.30 0.29 0.30 0.29 0.28 0.26 0.24 0.22 0.22 0.20 0.20 0.18 0.17 0.15 0.17 0.18 0.17 0.20 0.22 0.21 0.23 0.24 0.25 0.26 0.27 0.29 0.30 0.34 0.35
0.19 0.20 0.20 0.24 0.26 0.30 0.28 0.26 0.27 0.27 0.29 0.30 0.29 0.28 0.26 0.23 0.22 0.21 0.20 0.19 0.18 0.17 0.16 0.16 0.16 0.15 0.20 0.24 0.26 0.24 0.25 0.25 0.27 0.29 0.31 0.29 0.30 0.34
0.16 0.16 0.20 0.24 0.24 0.29 0.29 0.27 0.26 0.27 0.29 0.29 0.28 0.28 0.27 0.24 0.22 0.20 0.19 0.19 0.18 0.18 0.16 0.16 0.15 0.13 0.16 0.18 0.24 0.28 0.24 0.26 0.27 0.27 0.29 0.30 0.29 0.32
0.19 0.20 0.23 0.26 0.26 0.28 0.29 0.27 0.28 0.27 0.27 0.28 0.28 0.29 0.27 0.24 0.22 0.20 0.19 0.19 0.18 0.18 0.16 0.16 0.15 0.13 0.16 0.19 0.21 0.25 0.29 0.26 0.26 0.26 0.26 0.29 0.33 0.34
0.18 0.20 0.24 0.28 0.30 0.31 0.30 0.29 0.28 0.27 0.28 0.28 0.28 0.28 0.27 0.23 0.22 0.21 0.20 0.19 0.19 0.18 0.16 0.15 0.15 0.15 0.18 0.23 0.22 0.24 0.27 0.30 0.29 0.26 0.26 0.25 0.24 0.27
0.18 0.18 0.21 0.28 0.30 0.30 0.30 0.29 0.28 0.28 0.27 0.27 0.28 0.28 0.27 0.24 0.23 0.21 0.20 0.20 0.19 0.18 0.17 0.17 0.16 0.15 0.16 0.17 0.20 0.23 0.25 0.28 0.30 0.29 0.29 0.28 0.25 0.21
0.17 0.18 0.19 0.23 0.25 0.29 0.29 0.29 0.27 0.27 0.27 0.28 0.28 0.28 0.27 0.24 0.24 0.23 0.22 0.22 0.20 0.19 0.18 0.16 0.15 0.15 0.14 0.15 0.17 0.21 0.23 0.24 0.25 0.25 0.26 0.29 0.30 0.30

GFSNE_prec_pwat_048.txt.gz
Precipitable_Water
0.72 0.72 0.71 0.64 0.61 0.55 0.51 0.45 0.38 0.27 0.24 0.25 0.24 0.30 0.32 0.32 0.30 0.26 0.24 0.22 0.20 0.16 0.16 0.16 0.17 0.18 0.19 0.21 0.23 0.24 0.25 0.27 0.28 0.30 0.32 0.32 0.33 0.35
0.74 0.74 0.68 0.63 0.59 0.56 0.50 0.45 0.37 0.30 0.24 0.27 0.26 0.29 0.31 0.29 0.28 0.24 0.23 0.21 0.18 0.16 0.16 0.16 0.17 0.18 0.19 0.20 0.21 0.22 0.23 0.23 0.24 0.25 0.26 0.28 0.30 0.31
0.75 0.68 0.65 0.62 0.56 0.52 0.48 0.42 0.36 0.32 0.27 0.27 0.29 0.29 0.29 0.27 0.27 0.26 0.24 0.20 0.16 0.15 0.16 0.16 0.17 0.18 0.19 0.19 0.20 0.21 0.23 0.24 0.25 0.26 0.27 0.27 0.28 0.30
0.69 0.65 0.62 0.58 0.54 0.50 0.45 0.39 0.36 0.35 0.31 0.25 0.27 0.27 0.27 0.27 0.26 0.24 0.22 0.19 0.16 0.17 0.17 0.15 0.17 0.17 0.18 0.20 0.22 0.23 0.24 0.24 0.25 0.26 0.27 0.27 0.28 0.29
0.69 0.64 0.60 0.57 0.51 0.46 0.42 0.39 0.37 0.36 0.32 0.28 0.26 0.27 0.27 0.27 0.25 0.24 0.21 0.17 0.18 0.16 0.15 0.16 0.17 0.18 0.20 0.21 0.23 0.23 0.23 0.23 0.24 0.25 0.27 0.27 0.26 0.27
0.67 0.63 0.59 0.54 0.44 0.40 0.38 0.37 0.37 0.33 0.31 0.29 0.27 0.25 0.26 0.26 0.25 0.21 0.18 0.16 0.16 0.17 0.17 0.18 0.19 0.20 0.21 0.22 0.23 0.23 0.22 0.23 0.24 0.25 0.26 0.26 0.26 0.25
0.65 0.61 0.51 0.43 0.39 0.37 0.34 0.34 0.36 0.32 0.30 0.28 0.25 0.25 0.24 0.24 0.21 0.21 0.18 0.16 0.17 0.18 0.17 0.18 0.19 0.19 0.20 0.22 0.23 0.24 0.26 0.26 0.26 0.27 0.27 0.27 0.26 0.27
0.48 0.42 0.38 0.36 0.33 0.32 0.33 0.35 0.34 0.33 0.30 0.28 0.26 0.26 0.24 0.24 0.23 0.22 0.17 0.16 0.14 0.19 0.17 0.16 0.19 0.19 0.19 0.21 0.23 0.23 0.24 0.26 0.26 0.27 0.27 0.27 0.26 0.26
0.37 0.34 0.32 0.31 0.32 0.32 0.34 0.34 0.33 0.33 0.31 0.30 0.29 0.28 0.25 0.25 0.24 0.21 0.17 0.17 0.17 0.18 0.17 0.15 0.19 0.18 0.20 0.21 0.24 0.23 0.25 0.27 0.28 0.26 0.26 0.27 0.27 0.27
0.33 0.32 0.29 0.28 0.31 0.33 0.32 0.32 0.31 0.32 0.32 0.31 0.31 0.28 0.27 0.27 0.25 0.21 0.20 0.20 0.20 0.20 0.19 0.15 0.19 0.18 0.21 0.21 0.22 0.24 0.25 0.28 0.26 0.25 0.27 0.28 0.28 0.28
0.31 0.30 0.29 0.29 0.30 0.31 0.30 0.29 0.29 0.30 0.34 0.33 0.32 0.31 0.28 0.27 0.25 0.22 0.20 0.18 0.17 0.18 0.20 0.17 0.18 0.17 0.18 0.19 0.23 0.27 0.27 0.25 0.26 0.25 0.26 0.27 0.28 0.28
0.29 0.29 0.31 0.30 0.29 0.30 0.29 0.28 0.27 0.28 0.31 0.33 0.29 0.29 0.29 0.29 0.28 0.24 0.22 0.18 0.18 0.17 0.20 0.17 0.17 0.17 0.15 0.18 0.22 0.23 0.24 0.26 0.27 0.27 0.28 0.28 0.29 0.28
0.29 0.29 0.30 0.32 0.30 0.30 0.30 0.29 0.29 0.31 0.33 0.33 0.33 0.29 0.27 0.27 0.25 0.26 0.24 0.22 0.19 0.18 0.21 0.19 0.18 0.17 0.17 0.16 0.19 0.22 0.25 0.27 0.27 0.28 0.30 0.29 0.29 0.29
0.27 0.30 0.32 0.34 0.34 0.32 0.31 0.30 0.32 0.34 0.34 0.33 0.31 0.30 0.27 0.27 0.26 0.26 0.25 0.24 0.23 0.21 0.22 0.21 0.18 0.17 0.16 0.15 0.17 0.21 0.23 0.26 0.27 0.28 0.30 0.30 0.31 0.31
0.20 0.23 0.25 0.27 0.30 0.32 0.34 0.34 0.36 0.35 0.32 0.30 0.29 0.29 0.30 0.31 0.30 0.28 0.27 0.25 0.23 0.23 0.23 0.21 0.20 0.19 0.17 0.17 0.17 0.19 0.20 0.24 0.27 0.29 0.28 0.28 0.31 0.35
0.17 0.19 0.19 0.22 0.24 0.25 0.29 0.32 0.33 0.34 0.33 0.30 0.30 0.31 0.33 0.31 0.29 0.29 0.25 0.23 0.22 0.21 0.23 0.22 0.21 0.19 0.17 0.18 0.19 0.21 0.23 0.22 0.27 0.27 0.28 0.31 0.36 0.37
0.15 0.15 0.15 0.17 0.18 0.22 0.25 0.30 0.33 0.34 0.31 0.30 0.30 0.29 0.30 0.29 0.29 0.29 0.26 0.23 0.20 0.19 0.20 0.21 0.21 0.20 0.19 0.19 0.21 0.23 0.24 0.24 0.27 0.28 0.30 0.30 0.34 0.35
0.16 0.15 0.16 0.18 0.18 0.18 0.22 0.27 0.29 0.32 0.30 0.30 0.30 0.29 0.29 0.28 0.28 0.28 0.26 0.23 0.20 0.20 0.20 0.20 0.19 0.18 0.18 0.21 0.27 0.24 0.25 0.25 0.27 0.29 0.31 0.29 0.30 0.34
0.15 0.16 0.18 0.21 0.24 0.24 0.25 0.27 0.27 0.32 0.31 0.30 0.29 0.28 0.29 0.29 0.28 0.27 0.26 0.22 0.20 0.20 0.20 0.20 0.19 0.17 0.14 0.15 0.25 0.28 0.25 0.25 0.26 0.26 0.28 0.28 0.29 0.32
0.14 0.15 0.16 0.18 0.19 0.22 0.28 0.29 0.29 0.29 0.30 0.30 0.28 0.28 0.28 0.28 0.28 0.26 0.24 0.22 0.20 0.20 0.20 0.19 0.18 0.17 0.14 0.15 0.19 0.25 0.29 0.26 0.26 0.25 0.25 0.27 0.31 0.36
0.12 0.13 0.16 0.18 0.19 0.21 0.28 0.32 0.31 0.30 0.30 0.28 0.28 0.28 0.28 0.29 0.27 0.27 0.24 0.23 0.21 0.20 0.18 0.18 0.19 0.18 0.15 0.18 0.19 0.24 0.28 0.30 0.29 0.26 0.25 0.24 0.24 0.27
0.12 0.12 0.14 0.17 0.19 0.22 0.25 0.28 0.30 0.30 0.29 0.28 0.28 0.28 0.29 0.29 0.27 0.26 0.25 0.23 0.20 0.20 0.20 0.20 0.20 0.18 0.16 0.16 0.16 0.20 0.24 0.28 0.30 0.29 0.29 0.27 0.24 0.20
0.12 0.12 0.13 0.15 0.19 0.20 0.22 0.24 0.25 0.29 0.29 0.28 0.28 0.28 0.29 0.27 0.28 0.27 0.26 0.23 0.22 0.21 0.20 0.19 0.19 0.18 0.16 0.15 0.15 0.17 0.21 0.24 0.25 0.25 0.28 0.28 0.28 0.29

GFSNE_prec_pwat_051.txt.gz
Precipitable_Water
0.82 0.83 0.79 0.76 0.78 0.72 0.66 0.60 0.52 0.45 0.43 0.43 0.38 0.38 0.36 0.36 0.36 0.35 0.32 0.29 0.27 0.25 0.22 0.18 0.17 0.17 0.19 0.19 0.20 0.21 0.23 0.24 0.25 0.26 0.27 0.28 0.30 0.32
0.82 0.81 0.78 0.78 0.74 0.68 0.63 0.60 0.57 0.51 0.41 0.41 0.37 0.35 0.35 0.33 0.34 0.32 0.31 0.28 0.28 0.26 0.22 0.19 0.17 0.18 0.18 0.18 0.19 0.21 0.23 0.24 0.24 0.26 0.27 0.28 0.29 0.28
0.80 0.78 0.76 0.74 0.68 0.65 0.61 0.59 0.56 0.50 0.39 0.34 0.35 0.34 0.33 0.32 0.33 0.35 0.33 0.30 0.28 0.25 0.20 0.19 0.18 0.18 0.16 0.18 0.19 0.20 0.22 0.24 0.25 0.26 0.27 0.28 0.30 0.31
0.79 0.76 0.73 0.72 0.67 0.64 0.61 0.57 0.52 0.47 0.38 0.30 0.32 0.31 0.31 0.31 0.31 0.31 0.31 0.28 0.27 0.25 0.21 0.20 0.17 0.16 0.17 0.18 0.20 0.21 0.22 0.23 0.24 0.25 0.26 0.27 0.28 0.28
0.76 0.74 0.71 0.69 0.66 0.64 0.57 0.52 0.47 0.42 0.39 0.36 0.33 0.33 0.31 0.31 0.30 0.30 0.29 0.28 0.26 0.23 0.20 0.19 0.18 0.19 0.19 0.20 0.21 0.22 0.23 0.24 0.24 0.24 0.25 0.26 0.27 0.28
0.75 0.73 0.70 0.68 0.63 0.56 0.52 0.45 0.40 0.39 0.39 0.36 0.35 0.32 0.31 0.30 0.30 0.27 0.26 0.26 0.24 0.22 0.20 0.21 0.20 0.20 0.21 0.22 0.22 0.23 0.24 0.25 0.25 0.26 0.27 0.27 0.28 0.28
0.71 0.70 0.67 0.60 0.56 0.49 0.40 0.36 0.34 0.35 0.36 0.37 0.34 0.31 0.30 0.28 0.27 0.27 0.27 0.24 0.24 0.22 0.21 0.21 0.21 0.21 0.20 0.22 0.23 0.24 0.26 0.26 0.25 0.25 0.27 0.27 0.27 0.27
0.60 0.56 0.53 0.45 0.39 0.36 0.34 0.33 0.32 0.31 0.29 0.30 0.30 0.30 0.30 0.29 0.30 0.29 0.26 0.23 0.20 0.22 0.22 0.21 0.22 0.19 0.21 0.22 0.23 0.21 0.22 0.23 0.23 0.25 0.28 0.28 0.27 0.27
0.43 0.38 0.35 0.34 0.33 0.32 0.33 0.35 0.34 0.33 0.33 0.32 0.30 0.28 0.29 0.32 0.32 0.31 0.26 0.24 0.22 0.21 0.23 0.18 0.21 0.20 0.22 0.23 0.24 0.23 0.22 0.22 0.23 0.26 0.28 0.26 0.25 0.26
0.32 0.32 0.33 0.34 0.34 0.33 0.31 0.31 0.34 0.35 0.35 0.34 0.32 0.30 0.30 0.32 0.34 0.29 0.28 0.25 0.23 0.23 0.24 0.19 0.22 0.20 0.22 0.22 0.22 0.23 0.25 0.25 0.26 0.25 0.25 0.26 0.24 0.25
0.31 0.33 0.33 0.32 0.32 0.31 0.31 0.30 0.29 0.30 0.33 0.33 0.34 0.35 0.34 0.32 0.31 0.30 0.26 0.24 0.21 0.21 0.24 0.22 0.21 0.19 0.21 0.20 0.23 0.22 0.24 0.24 0.25 0.26 0.27 0.27 0.26 0.27
0.31 0.31 0.31 0.30 0.30 0.30 0.30 0.29 0.27 0.28 0.30 0.30 0.34 0.36 0.35 0.34 0.33 0.32 0.28 0.24 0.22 0.20 0.23 0.22 0.22 0.20 0.17 0.20 0.22 0.22 0.23 0.24 0.26 0.27 0.28 0.27 0.27 0.29
0.24 0.24 0.26 0.27 0.29 0.32 0.33 0.33 0.32 0.32 0.30 0.30 0.32 0.33 0.37 0.33 0.31 0.30 0.30 0.26 0.23 0.21 0.24 0.24 0.21 0.20 0.19 0.18 0.19 0.20 0.23 0.25 0.26 0.28 0.29 0.30 0.32 0.30
0.17 0.18 0.18 0.18 0.17 0.17 0.21 0.26 0.30 0.34 0.36 0.33 0.34 0.33 0.34 0.35 0.34 0.33 0.30 0.29 0.28 0.26 0.25 0.24 0.21 0.21 0.19 0.17 0.16 0.19 0.22 0.24 0.26 0.27 0.30 0.33 0.30 0.31
0.16 0.16 0.14 0.14 0.15 0.18 0.19 0.22 0.25 0.26 0.28 0.28 0.30 0.32 0.32 0.32 0.35 0.34 0.32 0.30 0.29 0.28 0.26 0.24 0.22 0.22 0.21 0.18 0.16 0.18 0.20 0.24 0.27 0.29 0.31 0.27 0.30 0.36
0.16 0.14 0.14 0.17 0.18 0.18 0.19 0.21 0.24 0.27 0.26 0.26 0.28 0.32 0.34 0.34 0.32 0.33 0.30 0.29 0.27 0.25 0.25 0.25 0.25 0.23 0.20 0.19 0.19 0.19 0.23 0.22 0.27 0.30 0.29 0.31 0.36 0.38
0.15 0.16 0.18 0.20 0.20 0.22 0.24 0.24 0.23 0.26 0.28 0.30 0.33 0.33 0.32 0.32 0.30 0.32 0.30 0.29 0.26 0.24 0.23 0.23 0.26 0.25 0.24 0.20 0.18 0.21 0.24 0.25 0.27 0.28 0.28 0.30 0.33 0.36
0.14 0.15 0.14 0.15 0.16 0.17 0.18 0.21 0.26 0.27 0.29 0.31 0.31 0.32 0.30 0.30 0.30 0.30 0.30 0.28 0.25 0.24 0.22 0.22 0.23 0.22 0.21 0.21 0.23 0.23 0.26 0.25 0.26 0.26 0.28 0.28 0.27 0.35
0.14 0.13 0.13 0.13 0.14 0.15 0.17 0.18 0.21 0.25 0.34 0.31 0.31 0.32 0.30 0.29 0.29 0.28 0.28 0.28 0.26 0.24 0.22 0.22 0.22 0.20 0.17 0.15 0.21 0.28 0.24 0.25 0.25 0.25 0.26 0.27 0.25 0.31
0.13 0.12 0.12 0.12 0.13 0.14 0.17 0.18 0.20 0.23 0.32 0.30 0.29 0.30 0.30 0.29 0.28 0.27 0.28 0.27 0.26 0.24 0.22 0.21 0.21 0.20 0.18 0.17 0.16 0.19 0.28 0.26 0.25 0.24 0.24 0.25 0.28 0.36
0.12 0.12 0.12 0.13 0.13 0.14 0.16 0.18 0.21 0.24 0.31 0.31 0.30 0.30 0.30 0.28 0.27 0.28 0.28 0.28 0.27 0.24 0.21 0.20 0.21 0.22 0.21 0.18 0.15 0.18 0.28 0.31 0.30 0.25 0.25 0.22 0.22 0.26
0.11 0.11 0.11 0.12 0.13 0.13 0.14 0.18 0.21 0.23 0.25 0.30 0.29 0.29 0.29 0.28 0.27 0.28 0.28 0.26 0.25 0.24 0.21 0.21 0.23 0.21 0.19 0.17 0.15 0.17 0.20 0.27 0.29 0.30 0.29 0.26 0.22 0.19
0.11 0.11 0.11 0.11 0.12 0.13 0.13 0.16 0.19 0.21 0.23 0.25 0.28 0.30 0.30 0.27 0.29 0.29 0.28 0.28 0.27 0.24 0.21 0.20 0.21 0.21 0.19 0.18 0.16 0.15 0.17 0.20 0.23 0.24 0.27 0.29 0.27 0.26

GFSNE_prec_pwat_057.txt.gz
Precipitable_Water
1.02 1.02 0.99 0.97 0.94 0.89 0.84 0.75 0.66 0.57 0.57 0.62 0.59 0.63 0.59 0.54 0.48 0.46 0.43 0.40 0.37 0.35 0.34 0.33 0.32 0.31 0.29 0.27 0.24 0.22 0.21 0.20 0.21 0.22 0.24 0.25 0.26 0.27
0.94 0.88 0.88 0.86 0.84 0.82 0.76 0.74 0.73 0.64 0.52 0.58 0.57 0.56 0.52 0.46 0.44 0.43 0.39 0.38 0.36 0.36 0.35 0.33 0.32 0.30 0.28 0.25 0.22 0.22 0.20 0.21 0.21 0.22 0.24 0.25 0.27 0.28
0.83 0.84 0.86 0.78 0.78 0.73 0.75 0.72 0.69 0.65 0.54 0.54 0.52 0.51 0.47 0.44 0.44 0.42 0.40 0.39 0.38 0.38 0.37 0.34 0.33 0.31 0.29 0.24 0.22 0.22 0.21 0.21 0.22 0.23 0.25 0.26 0.26 0.27
0.80 0.77 0.73 0.73 0.73 0.72 0.72 0.68 0.65 0.63 0.53 0.43 0.46 0.45 0.45 0.46 0.45 0.42 0.39 0.39 0.36 0.37 0.37 0.34 0.32 0.31 0.29 0.25 0.23 0.23 0.23 0.22 0.22 0.23 0.26 0.27 0.26 0.25
0.75 0.72 0.70 0.70 0.68 0.68 0.65 0.62 0.58 0.55 0.51 0.46 0.42 0.45 0.44 0.46 0.43 0.43 0.41 0.39 0.40 0.38 0.36 0.34 0.33 0.31 0.28 0.26 0.26 0.25 0.25 0.23 0.23 0.25 0.27 0.27 0.27 0.27
0.69 0.72 0.71 0.68 0.63 0.61 0.55 0.50 0.49 0.46 0.43 0.42 0.41 0.40 0.41 0.41 0.41 0.37 0.37 0.40 0.38 0.36 0.37 0.34 0.32 0.29 0.29 0.28 0.29 0.28 0.25 0.25 0.24 0.26 0.27 0.28 0.28 0.27
0.69 0.67 0.66 0.62 0.54 0.48 0.46 0.43 0.43 0.41 0.40 0.37 0.34 0.34 0.31 0.30 0.30 0.32 0.33 0.36 0.36 0.35 0.36 0.34 0.30 0.31 0.28 0.28 0.26 0.25 0.25 0.24 0.23 0.24 0.26 0.27 0.27 0.27
0.60 0.56 0.49 0.46 0.45 0.44 0.44 0.45 0.46 0.41 0.37 0.34 0.32 0.30 0.29 0.30 0.31 0.31 0.31 0.31 0.31 0.38 0.35 0.33 0.31 0.27 0.28 0.26 0.25 0.24 0.25 0.24 0.24 0.24 0.25 0.26 0.26 0.25
0.45 0.41 0.40 0.40 0.39 0.38 0.38 0.37 0.37 0.37 0.38 0.35 0.31 0.30 0.30 0.32 0.33 0.32 0.33 0.33 0.32 0.35 0.34 0.27 0.28 0.25 0.26 0.26 0.25 0.26 0.27 0.24 0.23 0.24 0.24 0.24 0.24 0.25
0.38 0.38 0.37 0.35 0.35 0.33 0.31 0.29 0.28 0.29 0.30 0.31 0.32 0.32 0.33 0.34 0.34 0.34 0.34 0.35 0.37 0.35 0.33 0.24 0.27 0.25 0.27 0.25 0.26 0.28 0.25 0.23 0.24 0.24 0.23 0.25 0.26 0.27
0.35 0.34 0.31 0.27 0.24 0.20 0.17 0.15 0.14 0.13 0.14 0.14 0.15 0.16 0.19 0.29 0.35 0.33 0.32 0.31 0.27 0.27 0.31 0.29 0.26 0.27 0.27 0.23 0.26 0.26 0.25 0.24 0.23 0.23 0.23 0.25 0.26 0.29
0.29 0.24 0.21 0.19 0.19 0.18 0.17 0.18 0.16 0.17 0.19 0.18 0.18 0.18 0.18 0.17 0.17 0.26 0.31 0.30 0.29 0.26 0.31 0.29 0.28 0.28 0.21 0.24 0.24 0.24 0.23 0.22 0.22 0.22 0.22 0.25 0.27 0.29
0.21 0.19 0.19 0.19 0.18 0.19 0.21 0.21 0.20 0.22 0.21 0.21 0.21 0.22 0.21 0.21 0.19 0.22 0.25 0.33 0.34 0.31 0.34 0.32 0.26 0.24 0.23 0.21 0.23 0.23 0.22 0.21 0.20 0.20 0.23 0.24 0.29 0.32
0.20 0.20 0.19 0.18 0.20 0.22 0.21 0.20 0.19 0.18 0.19 0.19 0.19 0.19 0.21 0.22 0.24 0.24 0.25 0.32 0.36 0.36 0.37 0.32 0.26 0.23 0.22 0.21 0.20 0.22 0.21 0.20 0.19 0.20 0.24 0.29 0.30 0.31
0.21 0.20 0.20 0.20 0.22 0.21 0.19 0.17 0.16 0.15 0.14 0.14 0.15 0.16 0.20 0.24 0.28 0.29 0.28 0.30 0.33 0.34 0.36 0.31 0.27 0.25 0.25 0.23 0.21 0.20 0.18 0.19 0.21 0.23 0.25 0.28 0.27 0.29
0.20 0.20 0.20 0.21 0.21 0.18 0.17 0.16 0.15 0.14 0.13 0.14 0.14 0.16 0.17 0.21 0.25 0.30 0.27 0.31 0.29 0.30 0.33 0.32 0.30 0.29 0.26 0.25 0.22 0.19 0.20 0.19 0.21 0.24 0.27 0.26 0.26 0.31
0.21 0.21 0.20 0.19 0.17 0.16 0.15 0.14 0.13 0.13 0.12 0.13 0.14 0.16 0.16 0.19 0.23 0.29 0.30 0.30 0.28 0.28 0.27 0.30 0.32 0.31 0.29 0.25 0.20 0.21 0.20 0.20 0.23 0.25 0.25 0.23 0.26 0.29
0.22 0.20 0.18 0.17 0.16 0.15 0.13 0.12 0.12 0.11 0.12 0.12 0.13 0.16 0.16 0.18 0.24 0.29 0.32 0.31 0.28 0.27 0.26 0.28 0.29 0.27 0.26 0.26 0.26 0.21 0.22 0.21 0.23 0.25 0.24 0.23 0.23 0.26
0.20 0.19 0.18 0.17 0.15 0.14 0.12 0.11 0.10 0.11 0.11 0.11 0.12 0.17 0.18 0.19 0.25 0.28 0.29 0.29 0.27 0.27 0.27 0.28 0.27 0.24 0.20 0.19 0.22 0.26 0.21 0.22 0.21 0.21 0.24 0.24 0.22 0.24
0.19 0.19 0.17 0.16 0.15 0.13 0.12 0.11 0.10 0.10 0.10 0.10 0.11 0.17 0.19 0.20 0.23 0.28 0.29 0.27 0.26 0.26 0.25 0.27 0.26 0.24 0.22 0.20 0.19 0.22 0.26 0.19 0.18 0.19 0.22 0.25 0.26 0.28
0.19 0.18 0.17 0.16 0.14 0.13 0.11 0.10 0.09 0.09 0.09 0.09 0.11 0.15 0.20 0.20 0.22 0.26 0.29 0.28 0.27 0.26 0.23 0.24 0.27 0.28 0.26 0.25 0.20 0.20 0.20 0.22 0.23 0.22 0.23 0.23 0.23 0.22
0.19 0.17 0.16 0.15 0.13 0.11 0.10 0.10 0.09 0.09 0.09 0.09 0.10 0.13 0.19 0.20 0.21 0.22 0.24 0.27 0.26 0.26 0.25 0.28 0.29 0.26 0.24 0.21 0.19 0.18 0.18 0.21 0.23 0.24 0.26 0.27 0.25 0.20
0.17 0.16 0.14 0.13 0.11 0.10 0.10 0.09 0.09 0.09 0.09 0.09 0.09 0.11 0.17 0.19 0.20 0.22 0.23 0.25 0.27 0.26 0.27 0.26 0.27 0.25 0.23 0.21 0.19 0.18 0.18 0.17 0.18 0.19 0.21 0.26 0.30 0.31

GFSNE_prec_pwat_060.txt.gz
Precipitable_Water
1.06 0.98 0.91 0.89 0.93 0.91 0.86 0.80 0.68 0.54 0.58 0.63 0.64 0.71 0.67 0.64 0.60 0.56 0.54 0.51 0.48 0.47 0.44 0.42 0.40 0.40 0.39 0.37 0.36 0.33 0.29 0.26 0.24 0.24 0.23 0.24 0.25 0.26
0.96 0.90 0.89 0.85 0.86 0.82 0.82 0.79 0.70 0.67 0.54 0.63 0.64 0.64 0.64 0.59 0.55 0.52 0.49 0.47 0.47 0.45 0.43 0.41 0.39 0.39 0.39 0.38 0.36 0.34 0.31 0.27 0.26 0.25 0.25 0.25 0.25 0.26
0.92 0.80 0.88 0.80 0.81 0.76 0.77 0.73 0.68 0.69 0.56 0.60 0.61 0.60 0.54 0.50 0.49 0.49 0.49 0.47 0.47 0.47 0.46 0.42 0.40 0.39 0.38 0.37 0.35 0.31 0.30 0.28 0.26 0.25 0.25 0.25 0.26 0.27
0.80 0.77 0.82 0.77 0.73 0.73 0.72 0.69 0.65 0.68 0.60 0.51 0.52 0.47 0.45 0.50 0.51 0.51 0.50 0.50 0.48 0.47 0.48 0.46 0.42 0.41 0.43 0.38 0.35 0.31 0.29 0.28 0.28 0.25 0.25 0.25 0.26 0.27
0.78 0.78 0.73 0.70 0.70 0.69 0.68 0.65 0.64 0.61 0.55 0.46 0.42 0.48 0.47 0.46 0.43 0.44 0.43 0.44 0.43 0.45 0.43 0.45 0.45 0.45 0.41 0.39 0.35 0.34 0.30 0.29 0.29 0.26 0.26 0.26 0.26 0.26
0.76 0.69 0.72 0.71 0.67 0.66 0.63 0.58 0.49 0.43 0.42 0.39 0.38 0.37 0.40 0.41 0.41 0.37 0.33 0.36 0.33 0.37 0.38 0.38 0.43 0.45 0.41 0.40 0.40 0.32 0.33 0.32 0.28 0.27 0.28 0.28 0.26 0.26
0.69 0.69 0.69 0.67 0.67 0.61 0.51 0.44 0.43 0.40 0.39 0.38 0.37 0.37 0.35 0.34 0.32 0.34 0.33 0.33 0.33 0.34 0.34 0.33 0.34 0.37 0.41 0.40 0.37 0.36 0.32 0.29 0.27 0.28 0.26 0.25 0.25 0.26
0.64 0.65 0.63 0.60 0.51 0.43 0.42 0.41 0.40 0.36 0.34 0.34 0.34 0.32 0.32 0.33 0.33 0.32 0.31 0.29 0.27 0.33 0.32 0.32 0.38 0.36 0.40 0.38 0.33 0.31 0.28 0.26 0.27 0.26 0.25 0.24 0.24 0.26
0.59 0.54 0.45 0.41 0.39 0.38 0.37 0.35 0.34 0.33 0.33 0.30 0.27 0.27 0.27 0.28 0.30 0.29 0.29 0.28 0.25 0.28 0.31 0.28 0.37 0.36 0.35 0.32 0.31 0.29 0.27 0.27 0.27 0.27 0.25 0.25 0.24 0.23
0.43 0.39 0.37 0.37 0.37 0.34 0.30 0.25 0.22 0.20 0.19 0.19 0.19 0.18 0.19 0.19 0.19 0.18 0.17 0.18 0.25 0.33 0.30 0.27 0.34 0.32 0.33 0.31 0.31 0.30 0.29 0.29 0.26 0.26 0.25 0.24 0.24 0.23
0.39 0.38 0.36 0.33 0.29 0.24 0.20 0.20 0.20 0.20 0.23 0.24 0.24 0.24 0.23 0.24 0.24 0.24 0.19 0.18 0.14 0.16 0.28 0.27 0.32 0.30 0.30 0.30 0.31 0.31 0.28 0.26 0.26 0.25 0.24 0.23 0.22 0.22
0.37 0.33 0.28 0.25 0.23 0.22 0.23 0.22 0.21 0.21 0.21 0.21 0.21 0.21 0.21 0.21 0.22 0.25 0.25 0.19 0.17 0.16 0.20 0.26 0.28 0.31 0.27 0.32 0.29 0.27 0.26 0.24 0.24 0.23 0.22 0.21 0.22 0.23
0.29 0.26 0.25 0.24 0.24 0.26 0.26 0.24 0.22 0.21 0.19 0.18 0.17 0.18 0.18 0.17 0.17 0.21 0.26 0.26 0.22 0.19 0.25 0.27 0.31 0.32 0.30 0.24 0.24 0.25 0.24 0.23 0.23 0.21 0.21 0.21 0.23 0.27
0.26 0.25 0.24 0.25 0.26 0.26 0.25 0.23 0.22 0.20 0.18 0.16 0.15 0.14 0.14 0.14 0.16 0.16 0.19 0.25 0.30 0.27 0.29 0.37 0.31 0.30 0.25 0.22 0.20 0.24 0.24 0.24 0.22 0.20 0.20 0.24 0.27 0.29
0.26 0.26 0.26 0.27 0.26 0.25 0.24 0.22 0.21 0.19 0.17 0.15 0.14 0.13 0.14 0.15 0.17 0.16 0.17 0.23 0.30 0.30 0.30 0.33 0.34 0.31 0.26 0.21 0.21 0.22 0.22 0.21 0.21 0.22 0.23 0.24 0.26 0.26
0.28 0.28 0.27 0.26 0.25 0.24 0.23 0.22 0.20 0.18 0.17 0.15 0.14 0.13 0.14 0.14 0.14 0.16 0.15 0.20 0.25 0.26 0.31 0.34 0.35 0.30 0.25 0.24 0.24 0.23 0.22 0.19 0.21 0.23 0.23 0.26 0.25 0.27
0.29 0.27 0.25 0.24 0.22 0.21 0.21 0.20 0.19 0.18 0.16 0.15 0.12 0.11 0.11 0.12 0.14 0.16 0.18 0.22 0.25 0.27 0.26 0.32 0.35 0.32 0.29 0.28 0.24 0.24 0.21 0.20 0.22 0.23 0.23 0.22 0.24 0.25
0.27 0.24 0.24 0.22 0.20 0.20 0.20 0.19 0.18 0.16 0.15 0.13 0.11 0.10 0.10 0.11 0.14 0.15 0.21 0.24 0.27 0.28 0.29 0.31 0.30 0.28 0.28 0.28 0.29 0.23 0.22 0.21 0.22 0.22 0.23 0.20 0.21 0.24
0.25 0.24 0.22 0.21 0.21 0.21 0.20 0.18 0.16 0.15 0.14 0.11 0.10 0.09 0.10 0.11 0.14 0.15 0.19 0.23 0.27 0.28 0.28 0.29 0.28 0.26 0.21 0.19 0.25 0.28 0.22 0.21 0.22 0.19 0.20 0.20 0.21 0.23
0.25 0.23 0.22 0.22 0.21 0.20 0.18 0.17 0.15 0.13 0.11 0.10 0.09 0.08 0.09 0.10 0.14 0.16 0.19 0.21 0.26 0.27 0.26 0.27 0.27 0.26 0.22 0.21 0.21 0.23 0.27 0.23 0.21 0.17 0.18 0.22 0.25 0.27
0.24 0.24 0.23 0.22 0.20 0.18 0.17 0.15 0.13 0.11 0.09 0.09 0.09 0.08 0.08 0.09 0.13 0.18 0.20 0.21 0.24 0.27 0.24 0.25 0.26 0.30 0.30 0.27 0.22 0.21 0.23 0.26 0.23 0.19 0.20 0.19 0.19 0.22
0.24 0.23 0.22 0.20 0.18 0.16 0.14 0.13 0.11 0.09 0.09 0.09 0.09 0.09 0.08 0.09 0.11 0.17 0.19 0.20 0.22 0.23 0.26 0.28 0.29 0.29 0.27 0.23 0.21 0.20 0.20 0.21 0.24 0.23 0.23 0.23 0.20 0.19
0.23 0.21 0.19 0.17 0.16 0.14 0.13 0.11 0.09 0.09 0.09 0.09 0.09 0.09 0.08 0.08 0.10 0.17 0.19 0.20 0.21 0.23 0.26 0.26 0.27 0.27 0.24 0.23 0.22 0.20 0.18 0.18 0.19 0.18 0.20 0.24 0.25 0.27

GFSNE_prec_pwat_066.txt.gz
Precipitable_Water
1.15 1.10 1.10 1.13 1.11 1.05 0.97 0.99 0.84 0.59 0.59 0.68 0.70 0.76 0.77 0.74 0.75 0.73 0.70 0.68 0.66 0.62 0.61 0.60 0.57 0.57 0.57 0.56 0.55 0.53 0.52 0.53 0.53 0.50 0.48 0.43 0.41 0.38
1.15 1.10 1.07 1.10 1.03 1.01 0.93 0.95 0.79 0.71 0.58 0.65 0.70 0.72 0.71 0.74 0.75 0.69 0.67 0.65 0.61 0.58 0.56 0.56 0.55 0.54 0.54 0.54 0.53 0.52 0.53 0.52 0.53 0.53 0.50 0.47 0.43 0.40
1.20 1.11 1.10 1.06 0.99 0.91 0.88 0.80 0.80 0.69 0.57 0.64 0.71 0.70 0.70 0.70 0.70 0.66 0.58 0.53 0.52 0.52 0.52 0.53 0.53 0.52 0.52 0.52 0.52 0.52 0.52 0.54 0.53 0.53 0.50 0.47 0.45 0.42
1.11 1.08 1.05 0.99 0.94 0.89 0.81 0.76 0.78 0.71 0.65 0.59 0.63 0.64 0.66 0.66 0.57 0.48 0.48 0.49 0.48 0.48 0.46 0.45 0.45 0.45 0.44 0.43 0.42 0.42 0.42 0.44 0.45 0.46 0.45 0.45 0.44 0.40
1.05 1.00 0.98 0.94 0.84 0.80 0.75 0.69 0.69 0.66 0.67 0.59 0.60 0.63 0.58 0.50 0.44 0.44 0.42 0.41 0.41 0.41 0.40 0.38 0.37 0.36 0.35 0.34 0.35 0.36 0.38 0.39 0.40 0.42 0.42 0.43 0.45 0.37
1.04 1.00 0.95 0.87 0.76 0.70 0.71 0.65 0.67 0.67 0.63 0.61 0.57 0.49 0.42 0.41 0.40 0.34 0.31 0.32 0.29 0.29 0.27 0.26 0.24 0.25 0.26 0.26 0.30 0.31 0.32 0.36 0.39 0.42 0.43 0.44 0.44 0.42
0.98 0.94 0.88 0.77 0.78 0.70 0.69 0.66 0.66 0.61 0.60 0.54 0.44 0.37 0.35 0.32 0.29 0.30 0.25 0.23 0.24 0.24 0.23 0.26 0.26 0.25 0.23 0.22 0.21 0.22 0.30 0.33 0.38 0.42 0.44 0.45 0.43 0.39
0.88 0.85 0.78 0.71 0.68 0.67 0.66 0.65 0.62 0.58 0.49 0.40 0.35 0.31 0.29 0.27 0.26 0.25 0.24 0.24 0.22 0.27 0.24 0.22 0.22 0.20 0.19 0.21 0.21 0.21 0.31 0.34 0.37 0.43 0.44 0.42 0.38 0.35
0.85 0.76 0.64 0.65 0.63 0.61 0.59 0.57 0.53 0.46 0.38 0.35 0.31 0.27 0.25 0.25 0.26 0.26 0.24 0.24 0.23 0.25 0.24 0.20 0.23 0.20 0.21 0.22 0.23 0.23 0.29 0.33 0.39 0.42 0.39 0.36 0.34 0.29
0.73 0.66 0.63 0.58 0.58 0.56 0.54 0.47 0.39 0.35 0.34 0.32 0.30 0.28 0.27 0.28 0.29 0.28 0.27 0.26 0.25 0.24 0.25 0.19 0.21 0.18 0.21 0.23 0.24 0.23 0.27 0.33 0.40 0.42 0.38 0.32 0.29 0.30
0.63 0.62 0.58 0.55 0.54 0.49 0.40 0.33 0.31 0.30 0.30 0.28 0.27 0.26 0.27 0.28 0.28 0.27 0.23 0.22 0.20 0.21 0.23 0.21 0.18 0.19 0.20 0.20 0.22 0.22 0.24 0.29 0.40 0.38 0.32 0.31 0.31 0.29
0.59 0.57 0.53 0.49 0.43 0.38 0.32 0.29 0.27 0.27 0.27 0.26 0.25 0.25 0.26 0.25 0.25 0.24 0.23 0.21 0.20 0.18 0.21 0.18 0.17 0.18 0.15 0.20 0.22 0.24 0.26 0.31 0.38 0.33 0.33 0.32 0.28 0.27
0.52 0.48 0.44 0.40 0.37 0.34 0.31 0.29 0.27 0.29 0.29 0.25 0.25 0.25 0.25 0.25 0.23 0.23 0.23 0.22 0.20 0.19 0.19 0.20 0.17 0.16 0.19 0.20 0.22 0.27 0.31 0.34 0.36 0.35 0.32 0.27 0.26 0.24
0.46 0.42 0.39 0.37 0.35 0.32 0.31 0.32 0.32 0.29 0.27 0.28 0.27 0.26 0.23 0.23 0.23 0.23 0.22 0.22 0.22 0.20 0.19 0.21 0.17 0.17 0.19 0.20 0.19 0.27 0.31 0.33 0.32 0.26 0.25 0.25 0.23 0.22
0.44 0.41 0.38 0.35 0.33 0.32 0.34 0.33 0.31 0.32 0.32 0.27 0.24 0.23 0.23 0.23 0.24 0.22 0.21 0.20 0.20 0.19 0.18 0.22 0.21 0.23 0.23 0.22 0.22 0.25 0.26 0.26 0.26 0.25 0.25 0.22 0.21 0.22
0.42 0.37 0.35 0.33 0.35 0.37 0.36 0.35 0.35 0.32 0.26 0.25 0.25 0.23 0.24 0.24 0.21 0.20 0.18 0.17 0.16 0.14 0.16 0.22 0.25 0.27 0.25 0.25 0.27 0.26 0.27 0.22 0.25 0.25 0.23 0.22 0.23 0.24
0.38 0.37 0.37 0.37 0.37 0.36 0.36 0.35 0.30 0.27 0.27 0.25 0.24 0.24 0.23 0.22 0.19 0.19 0.17 0.15 0.14 0.11 0.11 0.17 0.25 0.31 0.30 0.28 0.25 0.27 0.25 0.25 0.27 0.24 0.23 0.21 0.22 0.24
0.40 0.38 0.36 0.35 0.35 0.35 0.32 0.29 0.28 0.27 0.27 0.26 0.25 0.23 0.21 0.19 0.18 0.17 0.15 0.13 0.10 0.10 0.11 0.15 0.20 0.24 0.27 0.28 0.31 0.27 0.27 0.27 0.26 0.24 0.24 0.21 0.20 0.22
0.39 0.39 0.36 0.34 0.31 0.30 0.28 0.28 0.28 0.28 0.27 0.25 0.23 0.21 0.19 0.18 0.16 0.14 0.12 0.10 0.08 0.08 0.11 0.15 0.20 0.22 0.21 0.20 0.28 0.33 0.27 0.27 0.25 0.23 0.23 0.21 0.19 0.19
0.37 0.34 0.33 0.32 0.31 0.30 0.29 0.28 0.27 0.26 0.25 0.22 0.20 0.19 0.17 0.15 0.13 0.11 0.09 0.08 0.07 0.07 0.10 0.16 0.20 0.24 0.24 0.23 0.24 0.27 0.31 0.26 0.24 0.22 0.21 0.22 0.22 0.23
0.34 0.32 0.32 0.31 0.29 0.28 0.27 0.26 0.25 0.23 0.21 0.19 0.17 0.16 0.14 0.13 0.10 0.09 0.08 0.07 0.07 0.08 0.09 0.15 0.20 0.25 0.25 0.28 0.24 0.24 0.25 0.28 0.27 0.24 0.23 0.21 0.19 0.19
0.31 0.30 0.29 0.28 0.26 0.25 0.24 0.23 0.21 0.19 0.17 0.15 0.13 0.12 0.11 0.10 0.09 0.08 0.08 0.07 0.07 0.08 0.10 0.17 0.21 0.23 0.24 0.24 0.22 0.23 0.24 0.24 0.28 0.28 0.26 0.23 0.20 0.15
0.28 0.27 0.26 0.25 0.24 0.22 0.20 0.17 0.15 0.14 0.12 0.11 0.10 0.10 0.09 0.09 0.09 0.09 0.09 0.09 0.08 0.08 0.10 0.16 0.20 0.22 0.24 0.25 0.24 0.24 0.23 0.22 0.22 0.21 0.21 0.24 0.24 0.23

GFSNE_prec_pwat_069.txt.gz
Precipitable_Water
0.99 1.07 1.11 1.18 1.11 1.15 1.14 1.09 0.95 0.79 0.71 0.85 0.80 0.81 0.79 0.75 0.78 0.78 0.73 0.71 0.71 0.68 0.67 0.65 0.60 0.58 0.58 0.59 0.58 0.58 0.57 0.56 0.55 0.56 0.57 0.57 0.57 0.58
1.11 1.16 1.09 1.12 1.11 1.11 1.09 1.05 0.98 0.81 0.67 0.80 0.76 0.78 0.73 0.72 0.76 0.76 0.73 0.71 0.69 0.66 0.59 0.56 0.56 0.57 0.56 0.55 0.54 0.52 0.52 0.52 0.51 0.52 0.54 0.55 0.55 0.62
1.18 1.19 1.19 1.16 1.15 1.11 1.11 1.03 0.95 0.87 0.73 0.72 0.79 0.79 0.76 0.71 0.71 0.73 0.73 0.69 0.62 0.54 0.52 0.50 0.49 0.47 0.47 0.47 0.47 0.47 0.46 0.47 0.49 0.48 0.47 0.47 0.49 0.52
1.25 1.21 1.17 1.17 1.13 1.11 1.06 0.96 0.89 0.87 0.77 0.67 0.67 0.69 0.65 0.69 0.70 0.68 0.60 0.54 0.49 0.46 0.44 0.43 0.41 0.40 0.39 0.38 0.39 0.39 0.39 0.39 0.39 0.39 0.40 0.42 0.44 0.46
1.23 1.17 1.13 1.11 1.05 1.02 1.00 0.92 0.88 0.79 0.73 0.66 0.59 0.66 0.67 0.67 0.62 0.54 0.46 0.42 0.40 0.37 0.33 0.30 0.27 0.28 0.27 0.28 0.28 0.28 0.27 0.28 0.28 0.32 0.34 0.34 0.38 0.40
1.20 1.18 1.14 1.09 1.03 1.00 0.93 0.87 0.74 0.70 0.66 0.62 0.58 0.60 0.60 0.57 0.51 0.39 0.33 0.34 0.28 0.27 0.27 0.27 0.28 0.30 0.30 0.28 0.27 0.25 0.25 0.24 0.24 0.25 0.29 0.34 0.37 0.39
1.15 1.15 1.10 1.05 1.02 0.97 0.89 0.80 0.69 0.64 0.59 0.57 0.56 0.54 0.49 0.43 0.35 0.32 0.27 0.28 0.28 0.29 0.29 0.29 0.30 0.29 0.28 0.27 0.26 0.24 0.22 0.23 0.24 0.23 0.28 0.32 0.38 0.40
1.05 1.05 1.03 1.00 0.98 0.91 0.84 0.76 0.70 0.61 0.57 0.55 0.52 0.44 0.39 0.34 0.29 0.27 0.27 0.26 0.26 0.33 0.31 0.30 0.30 0.28 0.28 0.27 0.25 0.23 0.22 0.22 0.23 0.24 0.32 0.36 0.40 0.43
1.00 0.97 0.94 0.94 0.88 0.79 0.71 0.67 0.63 0.58 0.56 0.52 0.44 0.38 0.31 0.29 0.29 0.27 0.28 0.29 0.29 0.31 0.30 0.27 0.29 0.27 0.27 0.26 0.24 0.21 0.22 0.24 0.24 0.24 0.32 0.37 0.42 0.42
0.97 0.96 0.91 0.82 0.76 0.69 0.63 0.59 0.56 0.55 0.52 0.45 0.37 0.32 0.31 0.30 0.30 0.31 0.32 0.31 0.31 0.30 0.29 0.25 0.27 0.25 0.26 0.26 0.24 0.21 0.24 0.26 0.25 0.24 0.30 0.35 0.40 0.41
0.90 0.86 0.87 0.74 0.67 0.61 0.58 0.55 0.53 0.49 0.43 0.35 0.31 0.29 0.29 0.28 0.31 0.31 0.29 0.26 0.27 0.26 0.28 0.27 0.25 0.23 0.22 0.21 0.22 0.23 0.25 0.26 0.26 0.26 0.30 0.35 0.42 0.38
0.81 0.82 0.74 0.63 0.59 0.58 0.56 0.50 0.43 0.37 0.32 0.30 0.29 0.29 0.28 0.31 0.30 0.30 0.28 0.27 0.25 0.26 0.28 0.24 0.21 0.22 0.19 0.19 0.19 0.22 0.26 0.28 0.28 0.29 0.32 0.39 0.35 0.32
0.75 0.70 0.59 0.58 0.57 0.53 0.46 0.40 0.36 0.34 0.32 0.29 0.28 0.28 0.32 0.30 0.30 0.31 0.30 0.27 0.27 0.26 0.26 0.24 0.22 0.21 0.21 0.17 0.17 0.22 0.25 0.28 0.31 0.34 0.33 0.34 0.32 0.31
0.64 0.56 0.55 0.53 0.48 0.43 0.40 0.37 0.35 0.32 0.30 0.31 0.31 0.33 0.31 0.32 0.30 0.29 0.28 0.28 0.28 0.25 0.24 0.23 0.21 0.20 0.19 0.17 0.17 0.21 0.24 0.30 0.33 0.33 0.35 0.32 0.27 0.25
0.56 0.52 0.51 0.48 0.43 0.40 0.38 0.36 0.34 0.34 0.33 0.35 0.34 0.32 0.30 0.29 0.30 0.28 0.29 0.27 0.26 0.24 0.22 0.21 0.21 0.21 0.20 0.18 0.18 0.21 0.23 0.28 0.30 0.30 0.28 0.27 0.26 0.25
0.53 0.51 0.48 0.44 0.41 0.39 0.39 0.39 0.39 0.39 0.37 0.35 0.31 0.29 0.30 0.29 0.29 0.28 0.26 0.24 0.22 0.21 0.21 0.20 0.20 0.19 0.18 0.21 0.23 0.21 0.26 0.25 0.27 0.27 0.28 0.28 0.26 0.25
0.51 0.48 0.45 0.43 0.41 0.41 0.41 0.38 0.39 0.37 0.34 0.32 0.30 0.30 0.29 0.29 0.28 0.26 0.24 0.22 0.19 0.18 0.17 0.16 0.16 0.17 0.20 0.23 0.23 0.25 0.25 0.27 0.27 0.27 0.27 0.24 0.25 0.26
0.47 0.45 0.42 0.42 0.39 0.38 0.38 0.36 0.35 0.33 0.31 0.31 0.31 0.29 0.27 0.26 0.25 0.23 0.22 0.20 0.18 0.16 0.13 0.12 0.11 0.13 0.18 0.25 0.30 0.28 0.28 0.27 0.27 0.28 0.28 0.24 0.23 0.26
0.44 0.42 0.40 0.39 0.38 0.36 0.35 0.33 0.31 0.32 0.31 0.30 0.28 0.27 0.25 0.24 0.22 0.21 0.19 0.17 0.14 0.12 0.10 0.09 0.09 0.12 0.13 0.16 0.26 0.33 0.28 0.28 0.28 0.27 0.27 0.25 0.23 0.24
0.41 0.38 0.37 0.36 0.35 0.33 0.32 0.31 0.30 0.29 0.28 0.27 0.25 0.24 0.22 0.20 0.18 0.15 0.14 0.12 0.10 0.09 0.08 0.08 0.09 0.12 0.14 0.17 0.20 0.28 0.33 0.30 0.28 0.26 0.25 0.26 0.26 0.25
0.37 0.35 0.34 0.33 0.32 0.31 0.29 0.28 0.27 0.26 0.25 0.23 0.21 0.18 0.16 0.14 0.12 0.11 0.10 0.10 0.09 0.09 0.08 0.07 0.09 0.13 0.18 0.22 0.21 0.23 0.29 0.33 0.32 0.27 0.26 0.24 0.22 0.22
0.33 0.32 0.31 0.30 0.29 0.27 0.26 0.25 0.23 0.20 0.17 0.15 0.13 0.12 0.11 0.10 0.10 0.09 0.09 0.09 0.09 0.09 0.08 0.09 0.10 0.13 0.18 0.19 0.20 0.25 0.26 0.28 0.29 0.28 0.28 0.27 0.23 0.19
0.29 0.28 0.27 0.26 0.23 0.20 0.17 0.15 0.12 0.11 0.10 0.10 0.09 0.09 0.09 0.09 0.09 0.09 0.09 0.09 0.09 0.09 0.09 0.09 0.10 0.12 0.17 0.19 0.21 0.24 0.25 0.25 0.25 0.25 0.26 0.27 0.25 0.25

GFSNE_prec_pwat_072.txt.gz
Precipitable_Water
1.05 1.04 1.02 1.00 1.03 1.04 1.09 1.06 1.00 0.84 0.87 1.02 0.95 1.00 0.90 0.93 0.85 0.79 0.79 0.74 0.72 0.71 0.69 0.70 0.68 0.64 0.60 0.58 0.58 0.57 0.57 0.58 0.58 0.58 0.58 0.59 0.58 0.57
1.03 1.01 0.99 0.98 1.04 1.11 1.11 1.09 1.10 0.99 0.86 0.96 0.96 0.92 0.92 0.87 0.79 0.78 0.78 0.75 0.69 0.69 0.70 0.67 0.60 0.54 0.54 0.54 0.54 0.54 0.53 0.52 0.51 0.51 0.51 0.53 0.54 0.54
1.01 0.98 0.95 1.00 1.07 1.18 1.17 1.14 1.11 1.10 0.94 0.95 0.92 0.89 0.79 0.82 0.77 0.77 0.73 0.70 0.73 0.71 0.67 0.56 0.49 0.48 0.48 0.46 0.44 0.43 0.42 0.42 0.43 0.44 0.45 0.45 0.46 0.47
1.02 1.00 0.96 1.11 1.19 1.21 1.21 1.08 1.10 1.12 1.01 0.89 0.87 0.83 0.77 0.74 0.75 0.70 0.69 0.71 0.67 0.63 0.52 0.44 0.39 0.38 0.37 0.35 0.34 0.32 0.30 0.31 0.30 0.30 0.30 0.29 0.31 0.35
1.06 1.07 1.13 1.18 1.11 1.09 1.10 1.10 1.08 1.07 1.02 0.90 0.81 0.77 0.72 0.73 0.67 0.66 0.66 0.61 0.55 0.48 0.38 0.30 0.28 0.28 0.29 0.31 0.30 0.30 0.31 0.30 0.29 0.29 0.28 0.26 0.26 0.28
1.11 1.18 1.19 1.19 1.15 1.09 1.10 1.08 1.05 0.99 0.96 0.85 0.79 0.66 0.64 0.65 0.61 0.57 0.51 0.49 0.43 0.34 0.30 0.29 0.29 0.30 0.33 0.33 0.33 0.33 0.33 0.32 0.31 0.28 0.28 0.27 0.26 0.25
1.23 1.23 1.26 1.22 1.21 1.17 1.12 1.03 0.99 0.94 0.87 0.78 0.68 0.62 0.59 0.57 0.54 0.49 0.42 0.37 0.34 0.31 0.31 0.32 0.33 0.35 0.36 0.37 0.37 0.36 0.34 0.30 0.27 0.27 0.27 0.26 0.26 0.25
1.15 1.15 1.13 1.12 1.13 1.09 1.08 1.03 0.99 0.89 0.81 0.71 0.64 0.59 0.57 0.54 0.49 0.42 0.38 0.32 0.28 0.32 0.33 0.31 0.36 0.35 0.36 0.36 0.36 0.32 0.29 0.28 0.27 0.25 0.26 0.25 0.24 0.27
1.13 1.11 1.07 1.05 1.03 1.00 0.97 0.95 0.92 0.88 0.81 0.71 0.61 0.57 0.53 0.50 0.45 0.39 0.34 0.32 0.31 0.33 0.34 0.34 0.37 0.35 0.36 0.35 0.34 0.31 0.29 0.27 0.25 0.25 0.26 0.25 0.25 0.31
1.10 1.08 1.04 0.99 0.95 0.94 0.90 0.85 0.83 0.80 0.74 0.65 0.57 0.54 0.51 0.45 0.40 0.36 0.35 0.34 0.34 0.36 0.35 0.32 0.35 0.33 0.35 0.34 0.31 0.29 0.28 0.26 0.26 0.27 0.27 0.28 0.26 0.29
1.00 0.98 0.95 0.92 0.90 0.87 0.84 0.78 0.77 0.73 0.67 0.56 0.51 0.47 0.41 0.36 0.34 0.33 0.32 0.33 0.33 0.33 0.35 0.33 0.33 0.32 0.30 0.29 0.31 0.29 0.28 0.28 0.29 0.28 0.27 0.29 0.27 0.30
0.87 0.87 0.85 0.86 0.82 0.79 0.76 0.72 0.64 0.61 0.50 0.43 0.40 0.37 0.34 0.36 0.32 0.32 0.33 0.32 0.34 0.33 0.33 0.32 0.32 0.29 0.26 0.28 0.28 0.28 0.28 0.28 0.28 0.29 0.30 0.31 0.33 0.36
0.80 0.78 0.79 0.78 0.77 0.72 0.72 0.65 0.59 0.49 0.40 0.38 0.35 0.35 0.37 0.35 0.35 0.37 0.37 0.36 0.33 0.32 0.34 0.32 0.31 0.28 0.26 0.25 0.25 0.25 0.25 0.28 0.30 0.30 0.32 0.33 0.33 0.34
0.74 0.74 0.74 0.75 0.70 0.67 0.61 0.52 0.44 0.39 0.37 0.35 0.37 0.35 0.36 0.37 0.38 0.39 0.37 0.33 0.34 0.33 0.32 0.31 0.28 0.26 0.24 0.23 0.22 0.23 0.22 0.26 0.28 0.29 0.34 0.35 0.35 0.33
0.75 0.73 0.72 0.67 0.60 0.53 0.48 0.42 0.38 0.39 0.41 0.38 0.38 0.40 0.41 0.39 0.36 0.34 0.34 0.35 0.33 0.33 0.31 0.29 0.26 0.25 0.24 0.23 0.21 0.18 0.17 0.22 0.27 0.29 0.32 0.33 0.29 0.29
0.71 0.66 0.62 0.57 0.53 0.47 0.45 0.47 0.47 0.44 0.43 0.43 0.41 0.39 0.38 0.35 0.34 0.35 0.34 0.33 0.31 0.30 0.29 0.28 0.26 0.24 0.23 0.21 0.18 0.14 0.18 0.21 0.27 0.30 0.31 0.31 0.31 0.31
0.63 0.58 0.54 0.52 0.51 0.49 0.47 0.46 0.45 0.44 0.42 0.40 0.38 0.36 0.34 0.34 0.34 0.33 0.32 0.30 0.27 0.26 0.24 0.24 0.23 0.22 0.19 0.17 0.14 0.14 0.17 0.24 0.27 0.30 0.29 0.28 0.30 0.30
0.56 0.53 0.50 0.49 0.46 0.45 0.44 0.43 0.42 0.39 0.37 0.36 0.35 0.34 0.33 0.31 0.30 0.30 0.28 0.26 0.25 0.23 0.21 0.19 0.17 0.15 0.15 0.15 0.17 0.16 0.20 0.25 0.30 0.29 0.30 0.27 0.27 0.30
0.50 0.47 0.45 0.44 0.43 0.41 0.40 0.38 0.36 0.36 0.34 0.33 0.32 0.31 0.30 0.29 0.27 0.26 0.25 0.23 0.20 0.17 0.15 0.15 0.13 0.12 0.11 0.10 0.13 0.21 0.23 0.29 0.31 0.31 0.30 0.28 0.26 0.28
0.46 0.44 0.42 0.41 0.38 0.36 0.35 0.34 0.33 0.32 0.31 0.30 0.29 0.27 0.26 0.24 0.21 0.19 0.17 0.15 0.14 0.13 0.12 0.12 0.12 0.11 0.11 0.11 0.10 0.14 0.25 0.25 0.30 0.29 0.28 0.30 0.30 0.30
0.40 0.38 0.37 0.36 0.34 0.33 0.32 0.31 0.30 0.28 0.27 0.25 0.22 0.19 0.17 0.14 0.13 0.12 0.12 0.11 0.11 0.10 0.10 0.10 0.11 0.12 0.12 0.12 0.11 0.13 0.22 0.30 0.30 0.31 0.30 0.27 0.25 0.23
0.36 0.35 0.33 0.32 0.31 0.30 0.28 0.26 0.22 0.19 0.17 0.15 0.13 0.12 0.11 0.11 0.10 0.10 0.10 0.10 0.10 0.10 0.10 0.10 0.11 0.11 0.11 0.11 0.11 0.13 0.19 0.27 0.33 0.34 0.32 0.30 0.26 0.21
0.32 0.31 0.29 0.27 0.23 0.19 0.17 0.15 0.14 0.12 0.11 0.11 0.10 0.10 0.10 0.10 0.10 0.10 0.10 0.10 0.10 0.09 0.10 0.10 0.10 0.11 0.11 0.11 0.12 0.14 0.19 0.23 0.28 0.27 0.27 0.28 0.28 0.28

GFSNE_prec_pwat_075.txt.gz
Precipitable_Water
1.07 1.12 1.09 1.04 1.09 1.12 1.07 0.99 0.87 0.71 0.77 0.92 1.00 1.13 1.17 1.13 1.06 0.99 0.93 0.90 0.86 0.77 0.72 0.73 0.68 0.68 0.68 0.69 0.65 0.58 0.55 0.56 0.57 0.59 0.59 0.58 0.57 0.56
1.10 1.18 1.10 1.09 1.09 1.11 1.11 1.06 0.98 0.88 0.79 0.96 1.06 1.12 1.13 1.08 1.05 1.00 0.94 0.85 0.82 0.76 0.71 0.67 0.69 0.68 0.68 0.63 0.53 0.50 0.50 0.49 0.50 0.50 0.49 0.48 0.48 0.48
1.14 1.13 1.07 1.09 1.07 1.10 1.12 1.05 1.01 0.99 0.91 0.99 1.11 1.14 1.07 1.03 1.01 0.97 0.90 0.86 0.78 0.74 0.70 0.68 0.69 0.67 0.59 0.50 0.44 0.43 0.42 0.41 0.41 0.41 0.39 0.38 0.37 0.37
1.04 1.04 1.01 1.05 1.06 1.12 1.13 1.05 1.02 1.07 1.01 0.94 1.01 1.06 1.05 1.06 0.99 0.89 0.84 0.78 0.76 0.75 0.69 0.70 0.64 0.51 0.44 0.37 0.33 0.33 0.32 0.32 0.33 0.33 0.33 0.32 0.33 0.33
1.01 1.01 1.01 1.04 1.06 1.10 1.11 1.10 1.09 1.13 1.07 1.00 0.95 1.04 1.03 1.02 0.93 0.91 0.84 0.75 0.73 0.67 0.64 0.59 0.46 0.36 0.30 0.29 0.29 0.30 0.30 0.33 0.33 0.33 0.34 0.34 0.31 0.30
1.07 1.09 1.08 1.08 1.04 1.10 1.14 1.10 1.07 1.05 1.05 1.01 0.98 0.95 0.95 0.94 0.88 0.79 0.73 0.69 0.61 0.61 0.53 0.45 0.38 0.35 0.32 0.32 0.33 0.33 0.36 0.37 0.38 0.37 0.35 0.33 0.31 0.31
1.11 1.14 1.16 1.15 1.10 1.13 1.18 1.12 1.11 1.02 0.99 0.96 0.90 0.88 0.90 0.84 0.80 0.76 0.64 0.59 0.56 0.54 0.47 0.44 0.41 0.39 0.37 0.38 0.38 0.41 0.43 0.42 0.39 0.35 0.33 0.32 0.30 0.30
1.01 1.04 1.09 1.11 1.15 1.24 1.18 1.18 1.15 1.06 1.00 0.94 0.91 0.83 0.86 0.83 0.79 0.70 0.61 0.54 0.47 0.49 0.44 0.42 0.40 0.37 0.37 0.40 0.41 0.41 0.40 0.38 0.35 0.33 0.32 0.30 0.29 0.28
1.07 1.05 1.07 1.14 1.21 1.18 1.16 1.12 1.08 1.07 1.02 0.95 0.87 0.84 0.79 0.79 0.76 0.68 0.57 0.47 0.44 0.44 0.41 0.37 0.38 0.37 0.41 0.41 0.42 0.41 0.40 0.36 0.33 0.31 0.30 0.31 0.30 0.27
1.10 1.14 1.13 1.13 1.16 1.10 1.06 1.03 0.99 0.95 0.93 0.87 0.85 0.82 0.79 0.75 0.68 0.61 0.51 0.47 0.44 0.40 0.37 0.35 0.39 0.39 0.43 0.42 0.42 0.39 0.36 0.37 0.34 0.32 0.32 0.31 0.29 0.27
1.07 1.07 1.06 1.04 1.01 1.00 0.97 0.92 0.89 0.85 0.84 0.84 0.78 0.77 0.73 0.64 0.58 0.51 0.41 0.37 0.34 0.37 0.40 0.38 0.40 0.40 0.41 0.39 0.38 0.39 0.37 0.34 0.34 0.33 0.32 0.31 0.29 0.28
0.97 0.96 0.96 0.94 0.90 0.90 0.85 0.82 0.74 0.71 0.74 0.70 0.65 0.62 0.54 0.46 0.40 0.38 0.36 0.35 0.38 0.36 0.41 0.41 0.40 0.38 0.34 0.37 0.37 0.37 0.35 0.34 0.31 0.32 0.33 0.32 0.30 0.32
0.84 0.83 0.83 0.81 0.80 0.79 0.79 0.77 0.72 0.72 0.68 0.62 0.59 0.51 0.46 0.43 0.41 0.42 0.41 0.39 0.38 0.39 0.43 0.39 0.37 0.37 0.34 0.33 0.34 0.33 0.31 0.32 0.34 0.34 0.30 0.32 0.30 0.33
0.78 0.77 0.76 0.76 0.75 0.74 0.72 0.70 0.67 0.62 0.58 0.52 0.45 0.42 0.43 0.45 0.43 0.42 0.44 0.44 0.43 0.39 0.37 0.37 0.35 0.35 0.33 0.30 0.28 0.29 0.29 0.30 0.28 0.24 0.26 0.33 0.33 0.32
0.75 0.74 0.74 0.72 0.72 0.69 0.66 0.63 0.59 0.54 0.49 0.47 0.46 0.46 0.46 0.46 0.45 0.43 0.42 0.40 0.39 0.39 0.38 0.38 0.35 0.34 0.31 0.28 0.26 0.26 0.26 0.24 0.22 0.20 0.25 0.31 0.33 0.31
0.75 0.73 0.70 0.70 0.67 0.62 0.58 0.56 0.53 0.51 0.51 0.50 0.49 0.48 0.47 0.45 0.42 0.41 0.39 0.39 0.37 0.36 0.37 0.36 0.33 0.31 0.28 0.27 0.26 0.23 0.21 0.18 0.19 0.17 0.27 0.33 0.34 0.33
0.69 0.67 0.65 0.62 0.59 0.58 0.56 0.55 0.53 0.51 0.48 0.47 0.45 0.43 0.41 0.39 0.38 0.37 0.35 0.34 0.31 0.30 0.30 0.31 0.30 0.29 0.26 0.22 0.19 0.18 0.16 0.17 0.18 0.17 0.25 0.27 0.33 0.32
0.63 0.59 0.57 0.55 0.53 0.51 0.50 0.48 0.47 0.45 0.43 0.41 0.39 0.37 0.34 0.33 0.32 0.32 0.31 0.30 0.28 0.28 0.26 0.25 0.22 0.19 0.18 0.17 0.18 0.16 0.17 0.20 0.23 0.25 0.28 0.28 0.28 0.32
0.56 0.54 0.52 0.50 0.48 0.47 0.45 0.43 0.40 0.39 0.37 0.36 0.34 0.33 0.32 0.30 0.29 0.27 0.26 0.24 0.22 0.19 0.17 0.16 0.15 0.14 0.12 0.11 0.14 0.18 0.17 0.17 0.16 0.19 0.25 0.31 0.28 0.29
0.50 0.48 0.46 0.45 0.43 0.41 0.39 0.38 0.36 0.35 0.33 0.32 0.30 0.28 0.26 0.23 0.20 0.18 0.16 0.14 0.13 0.13 0.12 0.12 0.12 0.13 0.13 0.12 0.11 0.12 0.13 0.11 0.13 0.18 0.23 0.32 0.33 0.34
0.45 0.43 0.43 0.41 0.39 0.38 0.36 0.35 0.33 0.31 0.28 0.24 0.22 0.20 0.18 0.16 0.14 0.13 0.12 0.12 0.12 0.11 0.11 0.11 0.12 0.13 0.12 0.12 0.11 0.11 0.13 0.16 0.17 0.20 0.25 0.26 0.28 0.27
0.40 0.39 0.37 0.36 0.35 0.33 0.31 0.27 0.23 0.21 0.19 0.17 0.16 0.14 0.13 0.12 0.11 0.11 0.11 0.10 0.10 0.10 0.10 0.11 0.12 0.12 0.11 0.11 0.10 0.10 0.11 0.13 0.16 0.23 0.30 0.30 0.29 0.23
0.35 0.34 0.33 0.29 0.25 0.22 0.20 0.19 0.17 0.15 0.14 0.12 0.12 0.11 0.11 0.11 0.11 0.11 0.10 0.10 0.10 0.10 0.10 0.10 0.11 0.12 0.11 0.11 0.11 0.11 0.11 0.12 0.15 0.23 0.27 0.33 0.32 0.29